W4HSV Weather Reports


time (UTC)temp
F
wind
direction
speed
knots
gust
knots
rain 1hr
in
rain 24hr
in
rain mn
in
humidity
%
barometer
mb
20200222190719 50 205 2.6 6.1 0.00 0.00 0.00 36 1029.6
20200222190607 50 201 2.6 6.1 0.00 0.00 0.00 35 1029.6
20200222190455 50 222 2.6 6.1 0.00 0.00 0.00 37 1029.7
20200222190400 50 239 1.7 6.1 0.00 0.00 0.00 36 1029.7
20200222190306 50 238 2.6 6.1 0.00 0.00 0.00 35 1029.7
20200222190225 50 233 3.5 6.1 0.00 0.00 0.00 35 1029.7
20200222190114 50 187 1.7 6.1 0.00 0.00 0.00 36 1029.7
20200222185958 50 234 1.7 4.3 0.00 0.00 0.00 35 1029.7
20200222185906 50 233 2.6 4.3 0.00 0.00 0.00 37 1029.8
20200222185754 50 204 1.7 4.3 0.00 0.00 0.00 39 1029.8
20200222185713 50 209 2.6 4.3 0.00 0.00 0.00 39 1029.8
20200222185602 50 316 2.6 4.3 0.00 0.00 0.00 37 1029.8
20200222185511 50 313 1.7 5.2 0.00 0.00 0.00 36 1029.9
20200222185355 50 287 0.9 5.2 0.00 0.00 0.00 36 1029.9
20200222185304 50 280 1.7 5.2 0.00 0.00 0.00 38 1029.9
20200222185223 50 257 1.7 5.2 0.00 0.00 0.00 35 1030.0
20200222185112 50 243 1.7 3.5 0.00 0.00 0.00 36 1030.0
20200222184958 50 229 0.9 6.1 0.00 0.00 0.00 38 1030.0
20200222184907 50 229 0.9 6.1 0.00 0.00 0.00 40 1030.0
20200222184816 50 133 0.0 6.1 0.00 0.00 0.00 39 1030.0
20200222184735 50 132 0.9 6.1 0.00 0.00 0.00 36 1030.0
20200222184558 50 131 0.9 6.1 0.00 0.00 0.00 38 1030.1
20200222184508 50 145 1.7 6.1 0.00 0.00 0.00 38 1030.1
20200222184356 50 154 2.6 6.1 0.00 0.00 0.00 39 1030.2
20200222184303 49 170 3.5 6.1 0.00 0.00 0.00 39 1030.1
20200222184222 49 160 2.6 6.1 0.00 0.00 0.00 39 1030.2
20200222184108 49 191 1.7 5.2 0.00 0.00 0.00 38 1030.2
20200222184002 49 235 1.7 5.2 0.00 0.00 0.00 38 1030.1
20200222183908 49 180 1.7 5.2 0.00 0.00 0.00 40 1030.1
20200222183756 49 220 1.7 5.2 0.00 0.00 0.00 40 1030.1
20200222183717 49 199 1.7 5.2 0.00 0.00 0.00 38 1030.1
20200222183602 49 257 1.7 5.2 0.00 0.00 0.00 38 1030.1
20200222183509 49 248 2.6 5.2 0.00 0.00 0.00 39 1030.1
20200222183359 49 246 3.5 5.2 0.00 0.00 0.00 38 1030.1
20200222183308 49 222 2.6 5.2 0.00 0.00 0.00 40 1030.2
20200222183228 49 244 2.6 4.3 0.00 0.00 0.00 40 1030.3
20200222183058 49 222 0.9 6.1 0.00 0.00 0.00 39 1030.3
20200222183006 49 244 0.0 6.1 0.00 0.00 0.00 39 1030.4
20200222182914 49 244 0.9 6.1 0.00 0.00 0.00 37 1030.4
20200222182800 49 244 1.7 6.1 0.00 0.00 0.00 40 1030.5
20200222182719 49 245 1.7 6.1 0.00 0.00 0.00 37 1030.5
20200222182608 49 245 0.9 6.1 0.00 0.00 0.00 38 1030.5
20200222182456 49 245 0.9 6.1 0.00 0.00 0.00 40 1030.5
20200222182404 49 246 2.6 6.1 0.00 0.00 0.00 38 1030.6
20200222182311 49 245 2.6 6.1 0.00 0.00 0.00 38 1030.7
20200222182231 49 231 1.7 6.1 0.00 0.00 0.00 40 1030.7
20200222182102 49 200 1.7 2.6 0.00 0.00 0.00 39 1030.8
20200222182009 49 208 1.7 3.5 0.00 0.00 0.00 40 1030.8
20200222181854 49 289 0.9 3.5 0.00 0.00 0.00 44 1030.9
20200222181805 49 288 0.9 3.5 0.00 0.00 0.00 43 1030.9
20200222181723 49 288 0.9 3.5 0.00 0.00 0.00 43 1030.9
20200222181607 49 285 0.9 3.5 0.00 0.00 0.00 42 1031.0
20200222181455 49 278 0.9 3.5 0.00 0.00 0.00 42 1031.0
20200222181404 49 359 1.7 3.5 0.00 0.00 0.00 42 1031.0
20200222181312 49 336 1.7 3.5 0.00 0.00 0.00 40 1031.1
20200222181231 49 321 1.7 3.5 0.00 0.00 0.00 40 1031.1
20200222181104 49 359 0.9 3.5 0.00 0.00 0.00 39 1031.1
20200222181013 49 243 0.9 5.2 0.00 0.00 0.00 40 1031.1
20200222180856 49 243 1.7 5.2 0.00 0.00 0.00 42 1031.1
20200222180804 49 231 0.9 5.2 0.00 0.00 0.00 42 1031.2
20200222180724 49 231 0.9 5.2 0.00 0.00 0.00 40 1031.2
20200222180609 50 230 1.7 5.2 0.00 0.00 0.00 42 1031.2
20200222180454 50 230 2.6 5.2 0.00 0.00 0.00 42 1031.2
20200222180402 50 246 2.6 5.2 0.00 0.00 0.00 41 1031.2
20200222180308 50 237 1.7 5.2 0.00 0.00 0.00 41 1031.2
20200222180226 50 241 1.7 5.2 0.00 0.00 0.00 43 1031.2
20200222180059 50 137 0.0 5.2 0.00 0.00 0.00 43 1031.3
20200222180002 50 137 1.7 5.2 0.00 0.00 0.00 41 1031.3
20200222175909 50 137 1.7 5.2 0.00 0.00 0.00 43 1031.3
20200222175759 49 138 0.9 5.2 0.00 0.00 0.00 47 1031.3
20200222175717 49 139 0.9 5.2 0.00 0.00 0.00 45 1031.3
20200222175604 49 139 0.9 5.2 0.00 0.00 0.00 45 1031.3
20200222175512 49 139 1.7 5.2 0.00 0.00 0.00 43 1031.3
20200222175402 49 140 1.7 5.2 0.00 0.00 0.00 43 1031.3
20200222175308 49 149 1.7 5.2 0.00 0.00 0.00 44 1031.3
20200222175227 49 172 0.9 5.2 0.00 0.00 0.00 44 1031.3
20200222175059 49 176 2.6 5.2 0.00 0.00 0.00 44 1031.3
20200222175009 49 177 2.6 5.2 0.00 0.00 0.00 46 1031.3
20200222174854 48 171 1.7 5.2 0.00 0.00 0.00 47 1031.3
20200222174804 48 161 2.6 5.2 0.00 0.00 0.00 46 1031.4
20200222174723 48 161 2.6 5.2 0.00 0.00 0.00 44 1031.4
20200222174610 48 226 1.7 4.3 0.00 0.00 0.00 49 1031.5
20200222174455 48 257 1.7 3.5 0.00 0.00 0.00 46 1031.5
20200222174404 48 255 1.7 3.5 0.00 0.00 0.00 46 1031.6
20200222174313 48 224 0.9 3.5 0.00 0.00 0.00 48 1031.5
20200222174234 48 223 0.9 3.5 0.00 0.00 0.00 49 1031.5
20200222174100 48 222 0.9 4.3 0.00 0.00 0.00 50 1031.6
20200222174009 48 222 0.9 4.3 0.00 0.00 0.00 49 1031.6
20200222173918 47 223 1.7 4.3 0.00 0.00 0.00 47 1031.6
20200222173759 47 222 1.7 4.3 0.00 0.00 0.00 47 1031.7
20200222173719 47 223 1.7 4.3 0.00 0.00 0.00 46 1031.7
20200222173604 47 224 1.7 4.3 0.00 0.00 0.00 46 1031.7
20200222173510 47 216 1.7 4.3 0.00 0.00 0.00 47 1031.7
20200222173354 47 193 2.6 4.3 0.00 0.00 0.00 47 1031.7
20200222173303 47 202 2.6 4.3 0.00 0.00 0.00 48 1031.8
20200222173224 47 199 1.7 4.3 0.00 0.00 0.00 48 1031.8
20200222173107 47 168 1.7 4.3 0.00 0.00 0.00 47 1031.8
20200222173000 47 214 1.7 4.3 0.00 0.00 0.00 47 1031.8
20200222172910 47 240 1.7 4.3 0.00 0.00 0.00 46 1031.8
20200222172755 47 219 1.7 4.3 0.00 0.00 0.00 48 1031.9
20200222172715 47 209 1.7 3.5 0.00 0.00 0.00 50 1031.9
20200222172604 47 190 1.7 3.5 0.00 0.00 0.00 51 1031.9
20200222172512 47 174 1.7 3.5 0.00 0.00 0.00 50 1031.9
20200222172355 46 155 1.7 4.3 0.00 0.00 0.00 48 1031.9
20200222172304 46 223 0.9 5.2 0.00 0.00 0.00 48 1031.9
20200222172224 46 223 0.9 5.2 0.00 0.00 0.00 48 1031.9
20200222172055 46 224 0.9 5.2 0.00 0.00 0.00 47 1031.9
20200222172000 46 223 1.7 5.2 0.00 0.00 0.00 48 1032.0
20200222171908 46 226 1.7 5.2 0.00 0.00 0.00 48 1032.0
20200222171757 46 231 2.6 5.2 0.00 0.00 0.00 48 1032.0
20200222171718 46 224 2.6 5.2 0.00 0.00 0.00 48 1032.0
20200222171605 47 197 2.6 5.2 0.00 0.00 0.00 49 1032.0
20200222171454 46 218 2.6 5.2 0.00 0.00 0.00 49 1032.0
20200222171401 46 237 1.7 3.5 0.00 0.00 0.00 51 1032.0
20200222171310 46 274 0.9 3.5 0.00 0.00 0.00 52 1032.0
20200222171229 46 293 0.9 3.5 0.00 0.00 0.00 54 1032.0
20200222171102 46 293 0.9 4.3 0.00 0.00 0.00 49 1032.1
20200222171009 46 293 0.9 4.3 0.00 0.00 0.00 49 1032.1
20200222170854 46 283 1.7 4.3 0.00 0.00 0.00 49 1032.1
20200222170802 46 253 0.9 4.3 0.00 0.00 0.00 49 1032.1
20200222170722 46 254 1.7 4.3 0.00 0.00 0.00 49 1032.1
20200222170608 46 253 2.6 4.3 0.00 0.00 0.00 47 1032.1
20200222170456 46 240 2.6 4.3 0.00 0.00 0.00 50 1032.1
20200222170404 46 258 2.6 4.3 0.00 0.00 0.00 50 1032.1
20200222170311 46 248 1.7 5.2 0.00 0.00 0.00 48 1032.1
20200222170231 46 235 0.9 5.2 0.00 0.00 0.00 53 1032.1
20200222170103 46 161 2.6 5.2 0.00 0.00 0.00 50 1032.1
20200222170009 46 153 2.6 5.2 0.00 0.00 0.00 50 1032.2
20200222165855 46 160 1.7 5.2 0.00 0.00 0.00 51 1032.1
20200222165801 45 161 2.6 5.2 0.00 0.00 0.00 51 1032.2
20200222165720 45 160 2.6 5.2 0.00 0.00 0.00 51 1032.1
20200222165610 45 359 2.6 5.2 0.00 0.00 0.00 51 1032.0
20200222165500 45 206 1.7 5.2 0.00 0.00 0.00 52 1032.1
20200222165405 45 252 1.7 3.5 0.00 0.00 0.00 54 1032.0
20200222165316 45 274 1.7 3.5 0.00 0.00 0.00 50 1032.0
20200222165235 45 265 1.7 3.5 0.00 0.00 0.00 50 1032.0
20200222165103 45 251 1.7 3.5 0.00 0.00 0.00 50 1032.1
20200222165010 45 225 1.7 5.2 0.00 0.00 0.00 49 1032.2
20200222164857 45 236 0.9 5.2 0.00 0.00 0.00 50 1032.2
20200222164805 45 236 0.9 5.2 0.00 0.00 0.00 46 1032.3
20200222164726 45 237 1.7 5.2 0.00 0.00 0.00 46 1032.3
20200222164616 45 231 2.6 5.2 0.00 0.00 0.00 48 1032.3
20200222164525 46 234 2.6 5.2 0.00 0.00 0.00 47 1032.3
20200222164356 46 247 2.6 5.2 0.00 0.00 0.00 48 1032.3
20200222164304 46 245 2.6 5.2 0.00 0.00 0.00 45 1032.3
20200222164224 46 249 2.6 5.2 0.00 0.00 0.00 45 1032.3
20200222164056 46 204 2.6 4.3 0.00 0.00 0.00 46 1032.3
20200222164003 46 196 1.7 2.6 0.00 0.00 0.00 47 1032.3
20200222163912 46 192 0.9 3.5 0.00 0.00 0.00 49 1032.3
20200222163801 46 192 0.9 4.3 0.00 0.00 0.00 51 1032.3
20200222163721 46 192 0.9 4.3 0.00 0.00 0.00 52 1032.3
20200222163608 45 192 0.9 4.3 0.00 0.00 0.00 50 1032.3
20200222163456 45 192 1.7 4.3 0.00 0.00 0.00 52 1032.3
20200222163403 45 192 1.7 4.3 0.00 0.00 0.00 51 1032.4
20200222163310 45 192 0.9 4.3 0.00 0.00 0.00 51 1032.4
20200222163231 45 192 0.9 5.2 0.00 0.00 0.00 48 1032.4
20200222163104 45 192 1.7 5.2 0.00 0.00 0.00 50 1032.5
20200222163010 45 359 2.6 5.2 0.00 0.00 0.00 47 1032.5
20200222162858 44 196 1.7 5.2 0.00 0.00 0.00 49 1032.4
20200222162806 44 197 1.7 5.2 0.00 0.00 0.00 51 1032.4
20200222162726 44 183 1.7 5.2 0.00 0.00 0.00 49 1032.4
20200222162611 44 195 1.7 5.2 0.00 0.00 0.00 50 1032.5
20200222162500 44 193 1.7 5.2 0.00 0.00 0.00 50 1032.4
20200222162407 44 206 1.7 5.2 0.00 0.00 0.00 51 1032.5
20200222162314 44 226 0.9 4.3 0.00 0.00 0.00 52 1032.4
20200222162235 44 226 0.9 4.3 0.00 0.00 0.00 52 1032.4
20200222162106 44 226 1.7 4.3 0.00 0.00 0.00 53 1032.4
20200222162014 44 226 1.7 4.3 0.00 0.00 0.00 53 1032.4
20200222161858 43 226 1.7 4.3 0.00 0.00 0.00 56 1032.4
20200222161806 43 226 1.7 4.3 0.00 0.00 0.00 55 1032.5
20200222161726 43 227 1.7 4.3 0.00 0.00 0.00 53 1032.5
20200222161614 43 227 1.7 4.3 0.00 0.00 0.00 54 1032.5
20200222161457 43 226 2.6 4.3 0.00 0.00 0.00 54 1032.6
20200222161405 43 226 1.7 4.3 0.00 0.00 0.00 53 1032.5
20200222161256 43 224 1.7 4.3 0.00 0.00 0.00 55 1032.5
20200222161215 43 225 1.7 4.3 0.00 0.00 0.00 54 1032.5
20200222161107 43 359 2.6 4.3 0.00 0.00 0.00 54 1032.5
20200222160955 43 241 1.7 4.3 0.00 0.00 0.00 53 1032.4
20200222160901 43 239 1.7 4.3 0.00 0.00 0.00 54 1032.5
20200222160810 43 239 1.7 4.3 0.00 0.00 0.00 53 1032.5
20200222160728 43 232 1.7 4.3 0.00 0.00 0.00 56 1032.4
20200222160555 43 237 0.9 4.3 0.00 0.00 0.00 56 1032.4
20200222160502 43 237 0.9 4.3 0.00 0.00 0.00 57 1032.4
20200222160411 42 237 0.9 4.3 0.00 0.00 0.00 54 1032.4
20200222160258 42 238 1.7 4.3 0.00 0.00 0.00 55 1032.4
20200222160218 42 237 1.7 4.3 0.00 0.00 0.00 55 1032.4
20200222160112 43 239 1.7 4.3 0.00 0.00 0.00 53 1032.4
20200222155958 43 239 1.7 4.3 0.00 0.00 0.00 54 1032.4
20200222155903 43 238 1.7 4.3 0.00 0.00 0.00 55 1032.5
20200222155812 43 235 0.9 4.3 0.00 0.00 0.00 55 1032.4
20200222155733 43 231 0.9 4.3 0.00 0.00 0.00 55 1032.4
20200222155601 43 230 2.6 4.3 0.00 0.00 0.00 53 1032.5
20200222155507 43 231 2.6 4.3 0.00 0.00 0.00 54 1032.5
20200222155356 43 231 1.7 4.3 0.00 0.00 0.00 54 1032.5
20200222155304 43 231 1.7 4.3 0.00 0.00 0.00 53 1032.6
20200222155222 43 231 1.7 4.3 0.00 0.00 0.00 55 1032.6
20200222155111 43 207 1.7 4.3 0.00 0.00 0.00 54 1032.6
20200222154958 43 207 2.6 4.3 0.00 0.00 0.00 54 1032.6
20200222154907 43 207 2.6 4.3 0.00 0.00 0.00 54 1032.6
20200222154754 43 207 1.7 4.3 0.00 0.00 0.00 52 1032.7
20200222154714 43 208 0.9 4.3 0.00 0.00 0.00 52 1032.6
20200222154604 43 207 0.9 4.3 0.00 0.00 0.00 55 1032.6
20200222154512 42 207 0.9 4.3 0.00 0.00 0.00 57 1032.6
20200222154358 42 208 1.7 4.3 0.00 0.00 0.00 55 1032.6
20200222154308 42 207 2.6 4.3 0.00 0.00 0.00 56 1032.6
20200222154225 42 208 2.6 4.3 0.00 0.00 0.00 53 1032.6
20200222154055 42 208 2.6 4.3 0.00 0.00 0.00 55 1032.6
20200222154005 42 209 1.7 4.3 0.00 0.00 0.00 54 1032.6
20200222153911 42 210 1.7 4.3 0.00 0.00 0.00 55 1032.6
20200222153800 42 192 1.7 4.3 0.00 0.00 0.00 55 1032.6
20200222153718 42 169 1.7 4.3 0.00 0.00 0.00 55 1032.6
20200222153608 42 183 2.6 4.3 0.00 0.00 0.00 53 1032.6
20200222153455 42 183 1.7 4.3 0.00 0.00 0.00 56 1032.6
20200222153404 42 359 1.7 3.5 0.00 0.00 0.00 56 1032.6
20200222153310 42 135 1.7 3.5 0.00 0.00 0.00 57 1032.5
20200222153229 42 145 2.6 3.5 0.00 0.00 0.00 56 1032.6
20200222153100 41 132 1.7 6.1 0.00 0.00 0.00 57 1032.6
20200222153008 41 359 1.7 6.1 0.00 0.00 0.00 58 1032.6
20200222152854 41 131 2.6 6.1 0.00 0.00 0.00 59 1032.6
20200222152802 41 359 2.6 6.1 0.00 0.00 0.00 58 1032.6
20200222152721 41 151 1.7 6.1 0.00 0.00 0.00 58 1032.6
20200222152607 41 164 1.7 6.1 0.00 0.00 0.00 57 1032.6
20200222152454 41 154 2.6 6.1 0.00 0.00 0.00 56 1032.7
20200222152402 41 160 2.6 6.1 0.00 0.00 0.00 57 1032.8
20200222152300 41 185 2.6 5.2 0.00 0.00 0.00 58 1032.8
20200222152215 41 155 2.6 5.2 0.00 0.00 0.00 56 1032.8
20200222152103 41 183 3.5 5.2 0.00 0.00 0.00 56 1032.8
20200222152012 41 177 2.6 3.5 0.00 0.00 0.00 58 1032.8
20200222151857 41 179 1.7 3.5 0.00 0.00 0.00 58 1032.8
20200222151807 41 185 1.7 3.5 0.00 0.00 0.00 57 1032.8
20200222151726 40 185 1.7 3.5 0.00 0.00 0.00 59 1032.8
20200222151553 40 183 2.6 3.5 0.00 0.00 0.00 60 1032.8
20200222151501 40 106 2.6 3.5 0.00 0.00 0.00 61 1032.7
20200222151409 40 104 2.6 3.5 0.00 0.00 0.00 63 1032.7
20200222151256 39 102 1.7 2.6 0.00 0.00 0.00 63 1032.7
20200222151220 39 102 1.7 2.6 0.00 0.00 0.00 64 1032.7
20200222151108 39 102 1.7 2.6 0.00 0.00 0.00 64 1032.7
20200222150955 39 102 1.7 2.6 0.00 0.00 0.00 65 1032.7
20200222150903 38 102 0.9 2.6 0.00 0.00 0.00 65 1032.7
20200222150809 38 102 0.9 2.6 0.00 0.00 0.00 64 1032.8
20200222150729 38 102 0.9 2.6 0.00 0.00 0.00 64 1032.8
20200222150558 38 102 0.9 2.6 0.00 0.00 0.00 67 1032.8
20200222150506 38 102 0.9 2.6 0.00 0.00 0.00 67 1032.8
20200222150413 37 102 0.0 2.6 0.00 0.00 0.00 67 1032.8
20200222150300 37 102 0.0 2.6 0.00 0.00 0.00 68 1032.8
20200222150222 37 102 0.0 2.6 0.00 0.00 0.00 68 1032.8
20200222150112 37 102 0.9 2.6 0.00 0.00 0.00 69 1032.8
20200222145955 37 102 0.9 2.6 0.00 0.00 0.00 68 1032.8
20200222145903 37 102 0.9 2.6 0.00 0.00 0.00 69 1032.8
20200222145813 37 102 0.0 2.6 0.00 0.00 0.00 70 1032.9
20200222145732 37 102 0.9 2.6 0.00 0.00 0.00 69 1032.9
20200222145559 37 102 0.9 2.6 0.00 0.00 0.00 69 1032.9
20200222145505 36 102 1.7 2.6 0.00 0.00 0.00 70 1032.9
20200222145415 36 102 1.7 2.6 0.00 0.00 0.00 70 1032.8
20200222145300 36 100 0.9 1.7 0.00 0.00 0.00 72 1032.9
20200222145225 36 100 0.0 1.7 0.00 0.00 0.00 72 1032.9
20200222145054 36 100 0.9 1.7 0.00 0.00 0.00 72 1032.9
20200222145002 36 100 0.9 1.7 0.00 0.00 0.00 73 1032.9
20200222144908 36 100 0.9 1.7 0.00 0.00 0.00 74 1032.9
20200222144755 36 100 0.0 1.7 0.00 0.00 0.00 73 1032.8
20200222144714 36 100 0.0 1.7 0.00 0.00 0.00 73 1032.8
20200222144602 36 100 0.9 1.7 0.00 0.00 0.00 72 1032.7
20200222144510 36 100 0.9 1.7 0.00 0.00 0.00 72 1032.7
20200222144358 36 100 0.9 1.7 0.00 0.00 0.00 72 1032.6
20200222144306 36 100 0.0 1.7 0.00 0.00 0.00 72 1032.6
20200222144230 36 100 0.9 1.7 0.00 0.00 0.00 72 1032.6
20200222144056 35 100 0.0 1.7 0.00 0.00 0.00 72 1032.6
20200222144005 35 100 0.0 1.7 0.00 0.00 0.00 71 1032.7
20200222143913 35 100 0.0 1.7 0.00 0.00 0.00 72 1032.8
20200222143758 35 100 0.9 1.7 0.00 0.00 0.00 72 1032.7
20200222143718 35 100 0.9 1.7 0.00 0.00 0.00 72 1032.7
20200222143608 35 100 0.0 1.7 0.00 0.00 0.00 73 1032.7
20200222143454 35 100 0.9 1.7 0.00 0.00 0.00 74 1032.7
20200222143402 35 100 0.9 1.7 0.00 0.00 0.00 74 1032.8
20200222143256 34 100 0.9 0.9 0.00 0.00 0.00 74 1032.8
20200222143217 34 101 0.0 0.9 0.00 0.00 0.00 74 1032.9
20200222143102 34 100 0.0 0.9 0.00 0.00 0.00 74 1032.9
20200222143011 34 100 0.0 0.9 0.00 0.00 0.00 74 1033.0
20200222142858 34 100 0.0 0.9 0.00 0.00 0.00 75 1032.9
20200222142806 34 301 0.0 0.9 0.00 0.00 0.00 75 1032.9
20200222142726 34 354 0.0 0.9 0.00 0.00 0.00 75 1032.9
20200222142553 34 354 0.0 0.9 0.00 0.00 0.00 74 1032.8
20200222142459 34 354 0.0 1.7 0.00 0.00 0.00 74 1032.8
20200222142358 34 354 0.0 1.7 0.00 0.00 0.00 74 1032.8
20200222142307 34 354 0.0 1.7 0.00 0.00 0.00 75 1032.7
20200222142230 34 354 0.0 1.7 0.00 0.00 0.00 75 1032.7
20200222142054 34 354 0.0 2.6 0.00 0.00 0.00 76 1032.7
20200222142004 34 354 0.0 2.6 0.00 0.00 0.00 76 1032.6
20200222141914 34 354 0.0 2.6 0.00 0.00 0.00 76 1032.6
20200222141757 34 354 0.9 2.6 0.00 0.00 0.00 77 1032.6
20200222141715 34 354 0.9 2.6 0.00 0.00 0.00 77 1032.6
20200222141602 33 354 0.9 2.6 0.00 0.00 0.00 77 1032.6
20200222141511 33 354 0.9 2.6 0.00 0.00 0.00 78 1032.6
20200222141354 33 354 1.7 2.6 0.00 0.00 0.00 78 1032.6
20200222141304 33 354 1.7 2.6 0.00 0.00 0.00 78 1032.7
20200222141227 33 354 1.7 2.6 0.00 0.00 0.00 78 1032.7
20200222141116 33 354 1.7 2.6 0.00 0.00 0.00 77 1032.7
20200222140958 33 354 1.7 2.6 0.00 0.00 0.00 78 1032.7
20200222140908 33 354 1.7 2.6 0.00 0.00 0.00 78 1032.8
20200222140815 33 354 1.7 2.6 0.00 0.00 0.00 78 1032.7
20200222140734 33 354 1.7 2.6 0.00 0.00 0.00 78 1032.7
20200222140558 32 354 1.7 2.6 0.00 0.00 0.00 77 1032.7
20200222140507 32 354 0.9 2.6 0.00 0.00 0.00 77 1032.7
20200222140355 32 354 0.9 2.6 0.00 0.00 0.00 77 1032.7
20200222140302 32 354 1.7 2.6 0.00 0.00 0.00 78 1032.6
20200222140224 32 354 0.9 2.6 0.00 0.00 0.00 79 1032.6
20200222140113 32 354 0.9 2.6 0.00 0.00 0.00 80 1032.6
20200222135958 32 354 0.9 2.6 0.00 0.00 0.00 81 1032.6
20200222135905 32 354 1.7 2.6 0.00 0.00 0.00 82 1032.6
20200222135811 32 354 1.7 2.6 0.00 0.00 0.00 82 1032.5
20200222135731 31 354 1.7 2.6 0.00 0.00 0.00 82 1032.5
20200222135557 31 354 0.9 2.6 0.00 0.00 0.00 83 1032.5
20200222135502 31 354 0.9 1.7 0.00 0.00 0.00 83 1032.5
20200222135412 31 354 0.9 1.7 0.00 0.00 0.00 83 1032.5
20200222135300 31 354 0.9 1.7 0.00 0.00 0.00 83 1032.5
20200222135223 30 354 0.9 1.7 0.00 0.00 0.00 83 1032.4
20200222135112 30 354 0.9 1.7 0.00 0.00 0.00 84 1032.4
20200222134958 30 354 0.9 1.7 0.00 0.00 0.00 84 1032.3
20200222134906 30 354 0.9 1.7 0.00 0.00 0.00 84 1032.3
20200222134814 30 354 0.0 0.9 0.00 0.00 0.00 85 1032.3
20200222134734 30 354 0.0 0.9 0.00 0.00 0.00 84 1032.3
20200222134602 29 354 0.0 0.0 0.00 0.00 0.00 85 1032.4
20200222134510 29 354 0.0 0.0 0.00 0.00 0.00 85 1032.4
20200222134358 29 354 0.0 0.0 0.00 0.00 0.00 85 1032.4
20200222134307 29 354 0.0 0.0 0.00 0.00 0.00 85 1032.4
20200222134230 29 354 0.0 0.9 0.00 0.00 0.00 85 1032.4
20200222134054 29 354 0.0 0.9 0.00 0.00 0.00 85 1032.5
20200222134003 29 354 0.0 0.9 0.00 0.00 0.00 86 1032.4
20200222133912 28 354 0.0 0.9 0.00 0.00 0.00 86 1032.4
20200222133756 28 354 0.0 0.9 0.00 0.00 0.00 86 1032.4
20200222133717 28 354 0.0 0.9 0.00 0.00 0.00 86 1032.4
20200222133606 28 354 0.0 0.9 0.00 0.00 0.00 87 1032.4
20200222133454 28 354 0.0 0.9 0.00 0.00 0.00 87 1032.4
20200222133402 28 354 0.0 0.9 0.00 0.00 0.00 87 1032.5
20200222133310 28 354 0.0 0.9 0.00 0.00 0.00 88 1032.5
20200222133235 27 354 0.0 0.9 0.00 0.00 0.00 88 1032.5
20200222133057 27 354 0.0 0.9 0.00 0.00 0.00 87 1032.5
20200222133006 27 354 0.0 0.0 0.00 0.00 0.00 88 1032.5
20200222132856 27 354 0.0 0.0 0.00 0.00 0.00 87 1032.5
20200222132804 27 354 0.0 0.0 0.00 0.00 0.00 87 1032.4
20200222132723 27 354 0.0 0.0 0.00 0.00 0.00 87 1032.4
20200222132611 27 354 0.0 0.0 0.00 0.00 0.00 87 1032.4
20200222132500 27 354 0.0 0.0 0.00 0.00 0.00 87 1032.4
20200222132406 27 354 0.0 0.0 0.00 0.00 0.00 88 1032.4
20200222132255 27 354 0.0 0.0 0.00 0.00 0.00 88 1032.4
20200222132216 26 354 0.0 0.0 0.00 0.00 0.00 88 1032.4
20200222132102 26 354 0.0 0.0 0.00 0.00 0.00 88 1032.5
20200222132012 26 354 0.0 0.0 0.00 0.00 0.00 88 1032.5
20200222131856 26 354 0.0 0.0 0.00 0.00 0.00 88 1032.4
20200222131803 26 354 0.0 0.0 0.00 0.00 0.00 87 1032.5
20200222131724 26 354 0.0 0.0 0.00 0.00 0.00 87 1032.4
20200222131611 26 354 0.0 0.0 0.00 0.00 0.00 87 1032.5
20200222131454 26 354 0.0 0.0 0.00 0.00 0.00 87 1032.5
20200222131403 26 354 0.0 0.0 0.00 0.00 0.00 87 1032.5
20200222131309 26 354 0.0 0.0 0.00 0.00 0.00 87 1032.5
20200222131233 26 354 0.0 0.0 0.00 0.00 0.00 87 1032.5
20200222131056 26 354 0.0 0.0 0.00 0.00 0.00 87 1032.6
20200222131006 26 354 0.0 0.0 0.00 0.00 0.00 87 1032.6
20200222130914 26 354 0.0 0.0 0.00 0.00 0.00 87 1032.6
20200222130757 26 354 0.0 0.0 0.00 0.00 0.00 87 1032.6
20200222130717 26 354 0.0 0.0 0.00 0.00 0.00 87 1032.6
20200222130606 26 354 0.0 0.0 0.00 0.00 0.00 87 1032.5
20200222130513 25 354 0.0 0.0 0.00 0.00 0.00 87 1032.5
20200222130357 25 354 0.0 0.0 0.00 0.00 0.00 87 1032.5
20200222130305 25 354 0.0 0.0 0.00 0.00 0.00 87 1032.5
20200222130227 25 354 0.0 0.0 0.00 0.00 0.00 87 1032.5
20200222130117 25 354 0.0 0.0 0.00 0.00 0.00 86 1032.5
20200222125958 25 354 0.0 0.0 0.00 0.00 0.00 86 1032.5
20200222125906 25 354 0.0 0.0 0.00 0.00 0.00 86 1032.5
20200222125815 25 354 0.0 0.0 0.00 0.00 0.00 86 1032.5
20200222125736 25 354 0.0 0.0 0.00 0.00 0.00 86 1032.5
20200222125600 25 354 0.0 0.0 0.00 0.00 0.00 87 1032.5
20200222125510 25 354 0.0 0.0 0.00 0.00 0.00 87 1032.5
20200222125358 25 354 0.0 0.0 0.00 0.00 0.00 87 1032.4
20200222125304 25 354 0.0 0.0 0.00 0.00 0.00 87 1032.4
20200222125228 25 354 0.0 0.0 0.00 0.00 0.00 86 1032.4
20200222125053 25 354 0.0 0.0 0.00 0.00 0.00 86 1032.4
20200222125000 25 354 0.0 0.0 0.00 0.00 0.00 86 1032.4
20200222124906 25 354 0.0 0.0 0.00 0.00 0.00 86 1032.4
20200222124814 25 354 0.0 0.0 0.00 0.00 0.00 86 1032.5
20200222124733 25 354 0.0 0.9 0.00 0.00 0.00 86 1032.5
20200222124556 25 354 0.0 0.9 0.00 0.00 0.00 86 1032.5
20200222124505 25 354 0.0 0.9 0.00 0.00 0.00 86 1032.5
20200222124414 25 354 0.0 0.9 0.00 0.00 0.00 86 1032.5
20200222124313 25 354 0.0 0.9 0.00 0.00 0.00 86 1032.4
20200222124217 25 354 0.0 0.9 0.00 0.00 0.00 86 1032.4
20200222124107 25 354 0.0 0.9 0.00 0.00 0.00 86 1032.3
20200222124015 25 354 0.0 0.9 0.00 0.00 0.00 86 1032.3
20200222123858 25 354 0.0 0.9 0.00 0.00 0.00 86 1032.3
20200222123808 25 354 0.0 0.0 0.00 0.00 0.00 86 1032.4
20200222123727 25 354 0.0 0.0 0.00 0.00 0.00 86 1032.4
20200222123613 25 354 0.0 0.0 0.00 0.00 0.00 86 1032.4
20200222123500 25 354 0.0 0.0 0.00 0.00 0.00 85 1032.4
20200222123407 25 354 0.0 0.0 0.00 0.00 0.00 85 1032.4
20200222123253 25 354 0.0 0.0 0.00 0.00 0.00 85 1032.4
20200222123216 25 354 0.0 0.0 0.00 0.00 0.00 85 1032.4
20200222123105 25 354 0.0 0.0 0.00 0.00 0.00 85 1032.4
20200222123014 25 354 0.0 0.0 0.00 0.00 0.00 85 1032.3
20200222122858 25 354 0.0 0.0 0.00 0.00 0.00 85 1032.4
20200222122806 25 354 0.0 0.0 0.00 0.00 0.00 85 1032.3
20200222122726 25 354 0.0 0.0 0.00 0.00 0.00 85 1032.4
20200222122613 25 354 0.0 0.0 0.00 0.00 0.00 85 1032.3
20200222122459 25 354 0.0 0.0 0.00 0.00 0.00 85 1032.3
20200222122406 25 354 0.0 0.0 0.00 0.00 0.00 85 1032.3
20200222122255 25 354 0.0 0.0 0.00 0.00 0.00 85 1032.2
20200222122219 25 354 0.0 0.0 0.00 0.00 0.00 85 1032.2
20200222122105 25 354 0.0 0.0 0.00 0.00 0.00 85 1032.2
20200222121953 25 354 0.0 0.0 0.00 0.00 0.00 85 1032.2
20200222121904 25 354 0.0 0.0 0.00 0.00 0.00 84 1032.2
20200222121813 25 354 0.0 0.0 0.00 0.00 0.00 84 1032.2
20200222121732 25 354 0.0 0.0 0.00 0.00 0.00 84 1032.2
20200222121600 26 354 0.0 0.0 0.00 0.00 0.00 84 1032.1
20200222121506 26 354 0.0 0.0 0.00 0.00 0.00 84 1032.1
20200222121413 26 354 0.0 0.0 0.00 0.00 0.00 84 1032.1
20200222121320 26 354 0.0 0.0 0.00 0.00 0.00 84 1032.2
20200222121225 26 354 0.0 0.0 0.00 0.00 0.00 84 1032.2
20200222121114 26 354 0.0 0.0 0.00 0.00 0.00 84 1032.2
20200222121002 26 354 0.0 0.0 0.00 0.00 0.00 84 1032.2
20200222120910 26 354 0.0 0.0 0.00 0.00 0.00 84 1032.1
20200222120758 26 354 0.0 0.0 0.00 0.00 0.00 84 1032.1
20200222120719 26 354 0.0 0.0 0.00 0.00 0.00 84 1032.2
20200222120608 26 354 0.0 0.0 0.00 0.00 0.00 84 1032.2
20200222120457 26 354 0.0 0.0 0.00 0.00 0.00 84 1032.2
20200222120408 26 354 0.0 0.0 0.00 0.00 0.00 84 1032.2
20200222120256 26 354 0.0 0.9 0.00 0.00 0.00 84 1032.2
20200222120215 26 354 0.0 1.7 0.00 0.00 0.00 84 1032.2
20200222120105 26 354 0.0 1.7 0.00 0.00 0.00 84 1032.2
20200222120011 26 354 0.0 1.7 0.00 0.00 0.00 84 1032.3
20200222115854 26 354 0.0 1.7 0.00 0.00 0.00 84 1032.3
20200222115804 26 354 0.0 1.7 0.00 0.00 0.00 84 1032.3
20200222115724 26 354 0.0 1.7 0.00 0.00 0.00 84 1032.4
20200222115611 26 354 0.0 2.6 0.00 0.00 0.00 84 1032.3
20200222115454 26 354 0.9 2.6 0.00 0.00 0.00 84 1032.3
20200222115402 26 354 1.7 2.6 0.00 0.00 0.00 84 1032.3
20200222115254 26 354 1.7 2.6 0.00 0.00 0.00 84 1032.3
20200222115213 26 354 0.9 2.6 0.00 0.00 0.00 84 1032.3
20200222115059 26 354 0.9 2.6 0.00 0.00 0.00 85 1032.3
20200222115008 26 354 0.9 2.6 0.00 0.00 0.00 85 1032.3
20200222114853 26 354 1.7 2.6 0.00 0.00 0.00 85 1032.3
20200222114758 26 354 1.7 2.6 0.00 0.00 0.00 85 1032.3
20200222114719 26 354 1.7 2.6 0.00 0.00 0.00 85 1032.3
20200222114608 26 354 0.9 1.7 0.00 0.00 0.00 85 1032.2
20200222114454 26 354 0.9 1.7 0.00 0.00 0.00 85 1032.2
20200222114400 26 354 0.9 1.7 0.00 0.00 0.00 85 1032.2
20200222114308 26 354 1.7 1.7 0.00 0.00 0.00 85 1032.2
20200222114232 26 354 1.7 1.7 0.00 0.00 0.00 85 1032.2
20200222114101 26 354 0.9 1.7 0.00 0.00 0.00 85 1032.1
20200222114008 26 354 0.0 1.7 0.00 0.00 0.00 85 1032.1
20200222113853 26 354 0.0 1.7 0.00 0.00 0.00 85 1032.1
20200222113801 26 354 0.0 1.7 0.00 0.00 0.00 85 1032.1
20200222113722 26 354 0.0 1.7 0.00 0.00 0.00 85 1032.1
20200222113610 26 354 0.9 1.7 0.00 0.00 0.00 86 1032.1
20200222113454 26 354 0.9 1.7 0.00 0.00 0.00 86 1032.2
20200222113404 26 354 0.9 1.7 0.00 0.00 0.00 86 1032.1
20200222113257 26 354 0.0 1.7 0.00 0.00 0.00 86 1032.2
20200222113215 26 354 0.0 0.0 0.00 0.00 0.00 86 1032.2
20200222113104 26 354 0.0 0.0 0.00 0.00 0.00 86 1032.2
20200222113013 26 354 0.0 0.0 0.00 0.00 0.00 86 1032.2
20200222112902 26 354 0.0 0.0 0.00 0.00 0.00 86 1032.2
20200222112809 26 354 0.0 0.0 0.00 0.00 0.00 86 1032.2
20200222112728 26 354 0.0 0.0 0.00 0.00 0.00 86 1032.2
20200222112555 26 354 0.0 0.0 0.00 0.00 0.00 86 1032.3
20200222112503 26 354 0.0 0.0 0.00 0.00 0.00 86 1032.3
20200222112412 26 354 0.0 0.0 0.00 0.00 0.00 86 1032.3
20200222112306 26 354 0.0 0.0 0.00 0.00 0.00 86 1032.2
20200222112226 26 354 0.0 0.9 0.00 0.00 0.00 86 1032.2
20200222112112 26 354 0.0 1.7 0.00 0.00 0.00 86 1032.2
20200222112001 26 354 0.0 1.7 0.00 0.00 0.00 86 1032.2
20200222111911 26 354 0.0 1.7 0.00 0.00 0.00 85 1032.2
20200222111757 26 354 0.0 1.7 0.00 0.00 0.00 85 1032.2
20200222111716 26 354 0.0 1.7 0.00 0.00 0.00 85 1032.2
20200222111605 26 354 0.0 2.6 0.00 0.00 0.00 85 1032.1
20200222111510 26 354 0.0 2.6 0.00 0.00 0.00 85 1032.1
20200222111355 26 354 0.9 2.6 0.00 0.00 0.00 85 1032.1
20200222111308 26 354 0.9 2.6 0.00 0.00 0.00 85 1032.2
20200222111228 26 354 0.9 2.6 0.00 0.00 0.00 85 1032.1
20200222111112 26 354 0.9 2.6 0.00 0.00 0.00 85 1032.2
20200222111000 26 354 0.9 2.6 0.00 0.00 0.00 85 1032.2
20200222110909 26 354 1.7 2.6 0.00 0.00 0.00 85 1032.1
20200222110756 26 354 1.7 2.6 0.00 0.00 0.00 85 1032.1
20200222110716 26 354 1.7 2.6 0.00 0.00 0.00 85 1032.1
20200222110605 26 354 1.7 2.6 0.00 0.00 0.00 85 1032.1
20200222110513 26 354 1.7 2.6 0.00 0.00 0.00 85 1032.0
20200222110358 26 354 1.7 2.6 0.00 0.00 0.00 85 1031.9
20200222110312 25 354 1.7 2.6 0.00 0.00 0.00 85 1031.9
20200222110232 25 354 1.7 2.6 0.00 0.00 0.00 85 1031.9
20200222110101 25 354 1.7 2.6 0.00 0.00 0.00 85 1031.8
20200222110006 25 354 1.7 2.6 0.00 0.00 0.00 85 1031.8
20200222105912 25 354 0.9 2.6 0.00 0.00 0.00 85 1031.8
20200222105800 25 354 0.9 1.7 0.00 0.00 0.00 85 1031.8
20200222105719 26 354 0.9 1.7 0.00 0.00 0.00 85 1031.8
20200222105605 26 354 0.0 0.9 0.00 0.00 0.00 85 1031.7
20200222105453 26 354 0.0 0.0 0.00 0.00 0.00 85 1031.7
20200222105404 26 354 0.0 0.0 0.00 0.00 0.00 84 1031.8
20200222105253 26 354 0.0 0.0 0.00 0.00 0.00 84 1031.7
20200222105213 26 354 0.0 0.0 0.00 0.00 0.00 84 1031.7
20200222105101 26 354 0.0 0.0 0.00 0.00 0.00 84 1031.7
20200222105011 26 354 0.0 0.0 0.00 0.00 0.00 84 1031.7
20200222104853 26 354 0.0 0.0 0.00 0.00 0.00 84 1031.7
20200222104802 26 354 0.0 0.0 0.00 0.00 0.00 84 1031.7
20200222104721 26 354 0.0 0.0 0.00 0.00 0.00 84 1031.7
20200222104611 26 354 0.0 0.0 0.00 0.00 0.00 84 1031.7
20200222104453 26 354 0.0 0.0 0.00 0.00 0.00 84 1031.7
20200222104401 26 354 0.0 0.0 0.00 0.00 0.00 84 1031.7
20200222104254 26 354 0.0 0.0 0.00 0.00 0.00 84 1031.7
20200222104213 26 354 0.0 0.0 0.00 0.00 0.00 84 1031.6
20200222104102 26 354 0.0 0.0 0.00 0.00 0.00 84 1031.6
20200222104011 26 354 0.0 0.0 0.00 0.00 0.00 84 1031.6
20200222103900 26 354 0.0 0.0 0.00 0.00 0.00 84 1031.7
20200222103810 26 354 0.0 0.0 0.00 0.00 0.00 84 1031.7
20200222103729 26 354 0.0 0.0 0.00 0.00 0.00 84 1031.7
20200222103555 26 354 0.0 0.0 0.00 0.00 0.00 84 1031.7
20200222103504 26 354 0.0 0.0 0.00 0.00 0.00 84 1031.7
20200222103356 26 354 0.0 0.0 0.00 0.00 0.00 84 1031.7
20200222103306 26 354 0.0 0.0 0.00 0.00 0.00 84 1031.7
20200222103226 26 354 0.0 0.0 0.00 0.00 0.00 84 1031.6
20200222103113 26 354 0.0 0.0 0.00 0.00 0.00 84 1031.6
20200222102958 26 354 0.0 0.0 0.00 0.00 0.00 84 1031.7
20200222102907 26 354 0.0 0.0 0.00 0.00 0.00 84 1031.6
20200222102756 26 354 0.0 0.0 0.00 0.00 0.00 83 1031.6
20200222102716 26 354 0.0 0.0 0.00 0.00 0.00 83 1031.6
20200222102601 26 354 0.0 0.0 0.00 0.00 0.00 83 1031.6
20200222102509 26 354 0.0 0.0 0.00 0.00 0.00 83 1031.6
20200222102401 26 354 0.0 0.0 0.00 0.00 0.00 83 1031.6
20200222102308 26 354 0.0 0.0 0.00 0.00 0.00 83 1031.6
20200222102229 26 354 0.0 0.0 0.00 0.00 0.00 83 1031.6
20200222102057 26 354 0.0 0.0 0.00 0.00 0.00 82 1031.6
20200222102006 26 354 0.0 0.0 0.00 0.00 0.00 82 1031.5
20200222101914 26 354 0.0 0.0 0.00 0.00 0.00 82 1031.5
20200222101756 26 354 0.0 0.0 0.00 0.00 0.00 82 1031.5
20200222101716 26 354 0.0 0.0 0.00 0.00 0.00 82 1031.5
20200222101605 26 354 0.0 0.0 0.00 0.00 0.00 81 1031.5
20200222101511 27 354 0.0 0.0 0.00 0.00 0.00 81 1031.5
20200222101403 27 354 0.0 0.0 0.00 0.00 0.00 81 1031.5
20200222101313 27 354 0.0 0.0 0.00 0.00 0.00 81 1031.4
20200222101234 27 354 0.0 0.0 0.00 0.00 0.00 81 1031.4
20200222101055 27 354 0.0 0.0 0.00 0.00 0.00 80 1031.4
20200222101004 27 354 0.0 0.0 0.00 0.00 0.00 80 1031.4
20200222100853 27 354 0.0 0.0 0.00 0.00 0.00 80 1031.4
20200222100757 27 354 0.0 0.0 0.00 0.00 0.00 80 1031.5
20200222100718 27 354 0.0 0.0 0.00 0.00 0.00 80 1031.4
20200222100607 27 354 0.0 0.9 0.00 0.00 0.00 80 1031.4
20200222100515 27 354 0.0 0.9 0.00 0.00 0.00 80 1031.4
20200222100404 27 354 0.0 1.7 0.00 0.00 0.00 80 1031.4
20200222100313 27 354 0.0 1.7 0.00 0.00 0.00 80 1031.4
20200222100232 27 354 0.0 1.7 0.00 0.00 0.00 80 1031.4
20200222100057 27 354 0.0 1.7 0.00 0.00 0.00 80 1031.4
20200222100002 27 354 0.0 1.7 0.00 0.00 0.00 79 1031.4
20200222095911 27 354 0.0 1.7 0.00 0.00 0.00 79 1031.4
20200222095756 27 354 0.9 1.7 0.00 0.00 0.00 79 1031.4
20200222095716 27 354 0.9 1.7 0.00 0.00 0.00 79 1031.4
20200222095605 27 354 0.0 2.6 0.00 0.00 0.00 79 1031.3
20200222095454 27 354 0.0 2.6 0.00 0.00 0.00 79 1031.3
20200222095404 27 354 0.0 2.6 0.00 0.00 0.00 79 1031.3
20200222095309 27 354 0.0 2.6 0.00 0.00 0.00 79 1031.3
20200222095228 27 354 0.0 2.6 0.00 0.00 0.00 78 1031.3
20200222095056 27 354 0.9 2.6 0.00 0.00 0.00 78 1031.3
20200222095002 27 354 0.9 2.6 0.00 0.00 0.00 78 1031.3
20200222094911 27 354 0.9 2.6 0.00 0.00 0.00 78 1031.3
20200222094759 27 354 1.7 2.6 0.00 0.00 0.00 78 1031.3
20200222094720 27 354 1.7 2.6 0.00 0.00 0.00 78 1031.3
20200222094606 27 354 1.7 2.6 0.00 0.00 0.00 78 1031.3
20200222094453 27 354 1.7 2.6 0.00 0.00 0.00 78 1031.3
20200222094408 27 354 0.9 1.7 0.00 0.00 0.00 78 1031.3
20200222094317 27 354 0.9 1.7 0.00 0.00 0.00 78 1031.3
20200222094235 27 354 0.9 1.7 0.00 0.00 0.00 78 1031.3
20200222094101 27 354 0.9 1.7 0.00 0.00 0.00 78 1031.2
20200222094010 27 354 0.9 1.7 0.00 0.00 0.00 78 1031.2
20200222093857 27 354 0.9 1.7 0.00 0.00 0.00 78 1031.2
20200222093804 27 354 0.0 0.0 0.00 0.00 0.00 78 1031.3
20200222093722 27 354 0.0 0.0 0.00 0.00 0.00 78 1031.3
20200222093611 27 354 0.0 0.0 0.00 0.00 0.00 78 1031.3
20200222093456 27 354 0.0 0.0 0.00 0.00 0.00 79 1031.3
20200222093411 27 354 0.0 0.0 0.00 0.00 0.00 79 1031.3
20200222093258 27 354 0.0 0.9 0.00 0.00 0.00 79 1031.2
20200222093218 27 354 0.0 0.9 0.00 0.00 0.00 79 1031.3
20200222093104 27 354 0.0 1.7 0.00 0.00 0.00 79 1031.2
20200222093012 28 354 0.0 1.7 0.00 0.00 0.00 79 1031.2
20200222092900 28 354 0.0 1.7 0.00 0.00 0.00 79 1031.2
20200222092809 28 354 0.0 1.7 0.00 0.00 0.00 79 1031.2
20200222092730 28 354 0.0 1.7 0.00 0.00 0.00 79 1031.2
20200222092558 27 354 0.0 1.7 0.00 0.00 0.00 78 1031.2
20200222092506 27 354 0.9 1.7 0.00 0.00 0.00 78 1031.2
20200222092355 27 354 0.9 1.7 0.00 0.00 0.00 78 1031.2
20200222092301 27 354 0.9 1.7 0.00 0.00 0.00 78 1031.2
20200222092222 27 354 0.9 1.7 0.00 0.00 0.00 78 1031.2
20200222092109 27 354 0.9 1.7 0.00 0.00 0.00 78 1031.2
20200222091955 27 354 0.9 1.7 0.00 0.00 0.00 78 1031.3
20200222091903 27 354 0.9 1.7 0.00 0.00 0.00 78 1031.2
20200222091811 27 354 0.9 1.7 0.00 0.00 0.00 78 1031.2
20200222091732 27 354 0.9 1.7 0.00 0.00 0.00 78 1031.2
20200222091553 27 354 0.9 1.7 0.00 0.00 0.00 78 1031.3
20200222091501 27 354 0.9 1.7 0.00 0.00 0.00 78 1031.3
20200222091353 27 354 0.0 0.9 0.00 0.00 0.00 78 1031.2
20200222091301 27 354 0.0 1.7 0.00 0.00 0.00 78 1031.2
20200222091220 27 354 0.0 2.6 0.00 0.00 0.00 78 1031.2
20200222091109 27 354 0.0 2.6 0.00 0.00 0.00 78 1031.2
20200222090959 27 354 0.0 2.6 0.00 0.00 0.00 78 1031.2
20200222090905 27 354 0.0 2.6 0.00 0.00 0.00 78 1031.2
20200222090813 27 354 0.0 2.6 0.00 0.00 0.00 78 1031.2
20200222090734 28 354 0.0 2.6 0.00 0.00 0.00 78 1031.2
20200222090557 28 354 0.9 2.6 0.00 0.00 0.00 78 1031.2
20200222090506 28 354 1.7 2.6 0.00 0.00 0.00 78 1031.2
20200222090359 28 354 1.7 2.6 0.00 0.00 0.00 78 1031.2
20200222090306 28 354 1.7 2.6 0.00 0.00 0.00 78 1031.1
20200222090227 28 354 1.7 2.6 0.00 0.00 0.00 78 1031.1
20200222090057 28 354 1.7 2.6 0.00 0.00 0.00 78 1031.1
20200222090001 28 354 1.7 2.6 0.00 0.00 0.00 78 1031.2
20200222085910 28 354 0.9 1.7 0.00 0.00 0.00 78 1031.1
20200222085757 28 354 0.0 1.7 0.00 0.00 0.00 78 1031.1
20200222085718 28 354 0.0 1.7 0.00 0.00 0.00 78 1031.1
20200222085603 28 354 0.9 1.7 0.00 0.00 0.00 78 1031.1
20200222085453 28 354 0.0 0.9 0.00 0.00 0.00 78 1031.1
20200222085402 28 354 0.0 0.0 0.00 0.00 0.00 78 1031.1
20200222085311 28 354 0.0 0.0 0.00 0.00 0.00 78 1031.1
20200222085231 28 354 0.0 0.0 0.00 0.00 0.00 78 1031.1
20200222085057 28 354 0.0 0.0 0.00 0.00 0.00 77 1031.1
20200222085005 28 354 0.0 0.0 0.00 0.00 0.00 77 1031.2
20200222084912 28 354 0.0 0.0 0.00 0.00 0.00 77 1031.2
20200222084800 28 354 0.0 0.0 0.00 0.00 0.00 77 1031.1
20200222084720 28 354 0.0 0.0 0.00 0.00 0.00 77 1031.1
20200222084610 28 354 0.0 0.9 0.00 0.00 0.00 77 1031.2
20200222084500 28 354 0.0 1.7 0.00 0.00 0.00 77 1031.2
20200222084410 28 354 0.0 1.7 0.00 0.00 0.00 77 1031.2
20200222084257 28 354 0.0 1.7 0.00 0.00 0.00 76 1031.3
20200222084218 28 354 0.0 1.7 0.00 0.00 0.00 76 1031.3
20200222084106 28 354 0.0 1.7 0.00 0.00 0.00 76 1031.3
20200222083954 28 354 0.0 1.7 0.00 0.00 0.00 75 1031.3
20200222083902 28 354 0.0 1.7 0.00 0.00 0.00 75 1031.3
20200222083810 28 354 0.9 1.7 0.00 0.00 0.00 75 1031.4
20200222083730 28 354 0.9 2.6 0.00 0.00 0.00 75 1031.3
20200222083557 28 354 0.9 2.6 0.00 0.00 0.00 75 1031.3
20200222083510 28 354 0.9 2.6 0.00 0.00 0.00 75 1031.3
20200222083356 28 354 0.9 2.6 0.00 0.00 0.00 75 1031.3
20200222083304 29 354 0.9 2.6 0.00 0.00 0.00 75 1031.3
20200222083224 29 354 0.9 2.6 0.00 0.00 0.00 75 1031.3
20200222083112 29 354 0.9 2.6 0.00 0.00 0.00 74 1031.3
20200222083001 29 354 1.7 2.6 0.00 0.00 0.00 74 1031.4
20200222082909 29 354 1.7 2.6 0.00 0.00 0.00 74 1031.3
20200222082816 29 354 1.7 2.6 0.00 0.00 0.00 74 1031.3
20200222082736 29 354 1.7 2.6 0.00 0.00 0.00 74 1031.3
20200222082624 29 354 1.7 3.5 0.00 0.00 0.00 74 1031.3
20200222082511 29 354 1.7 3.5 0.00 0.00 0.00 74 1031.3
20200222082359 29 354 1.7 3.5 0.00 0.00 0.00 74 1031.4
20200222082307 29 354 1.7 3.5 0.00 0.00 0.00 74 1031.3
20200222082228 29 354 1.7 3.5 0.00 0.00 0.00 74 1031.3
20200222082113 29 354 1.7 3.5 0.00 0.00 0.00 74 1031.3
20200222081957 29 354 1.7 3.5 0.00 0.00 0.00 74 1031.3
20200222081905 29 354 2.6 3.5 0.00 0.00 0.00 74 1031.3
20200222081753 29 354 2.6 3.5 0.00 0.00 0.00 74 1031.3
20200222081713 29 354 2.6 3.5 0.00 0.00 0.00 74 1031.3
20200222081600 29 354 1.7 2.6 0.00 0.00 0.00 74 1031.3
20200222081453 29 354 1.7 3.5 0.00 0.00 0.00 74 1031.3
20200222081403 29 354 1.7 3.5 0.00 0.00 0.00 74 1031.3
20200222081309 29 354 1.7 3.5 0.00 0.00 0.00 74 1031.3
20200222081229 29 354 1.7 3.5 0.00 0.00 0.00 74 1031.3
20200222081055 29 354 1.7 3.5 0.00 0.00 0.00 74 1031.3
20200222081001 29 354 2.6 3.5 0.00 0.00 0.00 74 1031.3
20200222080907 29 354 2.6 3.5 0.00 0.00 0.00 73 1031.4
20200222080815 29 354 2.6 3.5 0.00 0.00 0.00 73 1031.3
20200222080734 29 354 2.6 3.5 0.00 0.00 0.00 73 1031.3
20200222080557 29 354 2.6 3.5 0.00 0.00 0.00 73 1031.4
20200222080505 29 354 2.6 3.5 0.00 0.00 0.00 73 1031.4
20200222080358 29 354 2.6 3.5 0.00 0.00 0.00 73 1031.4
20200222080303 29 354 2.6 3.5 0.00 0.00 0.00 73 1031.4
20200222080223 29 354 3.5 3.5 0.00 0.00 0.00 73 1031.4
20200222080112 29 354 2.6 3.5 0.00 0.00 0.00 73 1031.5
20200222075956 29 354 1.7 3.5 0.00 0.00 0.00 73 1031.5
20200222075903 29 354 1.7 2.6 0.00 0.00 0.00 73 1031.5
20200222075813 29 354 1.7 2.6 0.00 0.00 0.00 73 1031.6
20200222075732 29 354 1.7 2.6 0.00 0.00 0.00 73 1031.6
20200222075557 29 354 1.7 2.6 0.00 0.00 0.00 74 1031.6
20200222075505 29 354 2.6 2.6 0.00 0.00 0.00 74 1031.6
20200222075356 29 354 2.6 3.5 0.00 0.00 0.00 74 1031.7
20200222075306 29 354 2.6 3.5 0.00 0.00 0.00 74 1031.7
20200222075224 29 354 2.6 3.5 0.00 0.00 0.00 74 1031.7
20200222075113 29 354 1.7 3.5 0.00 0.00 0.00 74 1031.7
20200222074958 29 354 1.7 3.5 0.00 0.00 0.00 74 1031.8
20200222074906 29 354 1.7 3.5 0.00 0.00 0.00 74 1031.8
20200222074755 29 354 2.6 3.5 0.00 0.00 0.00 74 1031.8
20200222074715 29 354 2.6 3.5 0.00 0.00 0.00 74 1031.8
20200222074606 29 354 2.6 3.5 0.00 0.00 0.00 74 1031.8
20200222074457 29 354 2.6 3.5 0.00 0.00 0.00 74 1031.8
20200222074406 29 354 2.6 3.5 0.00 0.00 0.00 74 1031.8
20200222074315 29 354 1.7 3.5 0.00 0.00 0.00 74 1031.8
20200222074235 29 354 1.7 3.5 0.00 0.00 0.00 74 1031.8
20200222074059 29 354 1.7 3.5 0.00 0.00 0.00 73 1031.9
20200222074009 29 354 1.7 3.5 0.00 0.00 0.00 73 1031.8
20200222073855 29 354 2.6 3.5 0.00 0.00 0.00 73 1031.8
20200222073801 29 354 2.6 3.5 0.00 0.00 0.00 73 1031.8
20200222073722 29 354 2.6 3.5 0.00 0.00 0.00 73 1031.9
20200222073611 29 354 2.6 3.5 0.00 0.00 0.00 72 1031.9
20200222073458 29 354 1.7 2.6 0.00 0.00 0.00 72 1031.9
20200222073405 29 354 1.7 2.6 0.00 0.00 0.00 72 1031.9
20200222073313 29 350 1.7 2.6 0.00 0.00 0.00 71 1031.9
20200222073233 29 354 1.7 2.6 0.00 0.00 0.00 70 1031.9
20200222073056 30 354 1.7 2.6 0.00 0.00 0.00 70 1031.9
20200222073005 30 354 0.9 2.6 0.00 0.00 0.00 70 1031.9
20200222072855 30 350 0.0 0.0 0.00 0.00 0.00 70 1031.9
20200222072759 30 354 0.0 0.0 0.00 0.00 0.00 70 1031.9
20200222072717 30 354 0.0 0.0 0.00 0.00 0.00 70 1031.9
20200222072605 30 354 0.0 0.0 0.00 0.00 0.00 69 1031.9
20200222072455 30 350 0.0 0.0 0.00 0.00 0.00 69 1031.9
20200222072403 30 354 0.0 1.7 0.00 0.00 0.00 69 1032.0
20200222072311 30 350 0.0 1.7 0.00 0.00 0.00 69 1032.0
20200222072233 30 350 0.0 2.6 0.00 0.00 0.00 69 1032.0
20200222072057 30 354 0.0 2.6 0.00 0.00 0.00 69 1032.0
20200222072003 30 354 0.0 2.6 0.00 0.00 0.00 69 1032.0
20200222071911 30 354 0.0 2.6 0.00 0.00 0.00 69 1032.0
20200222071759 30 354 0.0 2.6 0.00 0.00 0.00 69 1032.0
20200222071721 30 350 0.0 2.6 0.00 0.00 0.00 69 1032.0
20200222071607 30 350 0.9 2.6 0.00 0.00 0.00 69 1032.0
20200222071457 30 354 1.7 2.6 0.00 0.00 0.00 69 1031.9
20200222071405 30 350 1.7 2.6 0.00 0.00 0.00 69 1031.9
20200222071316 30 350 1.7 2.6 0.00 0.00 0.00 69 1031.9
20200222071235 30 350 1.7 2.6 0.00 0.00 0.00 69 1031.9
20200222071100 30 354 1.7 2.6 0.00 0.00 0.00 69 1031.9
20200222071009 30 350 1.7 2.6 0.00 0.00 0.00 69 1031.9
20200222070852 30 350 1.7 2.6 0.00 0.00 0.00 69 1031.9
20200222070801 30 354 1.7 2.6 0.00 0.00 0.00 69 1031.9
20200222070722 30 350 1.7 2.6 0.00 0.00 0.00 69 1031.9
20200222070610 30 354 1.7 1.7 0.00 0.00 0.00 68 1031.9
20200222070459 30 354 0.9 1.7 0.00 0.00 0.00 68 1031.9
20200222070407 30 354 0.9 2.6 0.00 0.00 0.00 68 1031.9
20200222070255 31 354 0.9 2.6 0.00 0.00 0.00 67 1031.9
20200222070215 31 354 0.9 2.6 0.00 0.00 0.00 67 1031.9
20200222070103 31 354 0.9 2.6 0.00 0.00 0.00 67 1031.9
20200222070009 31 354 0.0 3.5 0.00 0.00 0.00 67 1031.9
20200222065854 31 354 0.0 3.5 0.00 0.00 0.00 67 1032.0
20200222065801 31 354 0.9 3.5 0.00 0.00 0.00 66 1032.0
20200222065720 31 354 0.9 3.5 0.00 0.00 0.00 66 1032.0
20200222065609 31 354 1.7 3.5 0.00 0.00 0.00 66 1032.0
20200222065502 31 354 1.7 3.5 0.00 0.00 0.00 66 1032.0
20200222065409 31 354 1.7 3.5 0.00 0.00 0.00 66 1032.0
20200222065257 31 8 1.7 3.5 0.00 0.00 0.00 66 1031.9
20200222065219 31 8 1.7 3.5 0.00 0.00 0.00 66 1032.0
20200222065104 31 4 1.7 2.6 0.00 0.00 0.00 66 1032.0
20200222065011 31 4 1.7 2.6 0.00 0.00 0.00 66 1032.0
20200222064859 31 4 1.7 2.6 0.00 0.00 0.00 66 1032.0
20200222064809 31 8 1.7 2.6 0.00 0.00 0.00 66 1032.0
20200222064729 31 4 0.9 1.7 0.00 0.00 0.00 66 1032.1
20200222064555 31 8 0.9 1.7 0.00 0.00 0.00 66 1032.1
20200222064509 31 10 0.9 1.7 0.00 0.00 0.00 66 1032.1
20200222064358 31 9 0.9 1.7 0.00 0.00 0.00 66 1032.1
20200222064306 31 4 0.9 1.7 0.00 0.00 0.00 66 1032.1
20200222064226 31 4 0.9 1.7 0.00 0.00 0.00 66 1032.1
20200222064055 31 4 0.9 1.7 0.00 0.00 0.00 66 1032.1
20200222064003 31 359 0.9 1.7 0.00 0.00 0.00 66 1032.1
20200222063909 31 10 0.9 1.7 0.00 0.00 0.00 66 1032.1
20200222063758 31 4 0.9 1.7 0.00 0.00 0.00 66 1032.1
20200222063717 31 4 0.9 1.7 0.00 0.00 0.00 66 1032.1
20200222063602 31 4 0.9 1.7 0.00 0.00 0.00 66 1032.1
20200222063453 31 359 0.9 1.7 0.00 0.00 0.00 67 1032.1
20200222063403 31 354 0.9 1.7 0.00 0.00 0.00 67 1032.1
20200222063311 30 354 0.9 1.7 0.00 0.00 0.00 67 1032.1
20200222063231 30 354 0.9 1.7 0.00 0.00 0.00 67 1032.1
20200222063057 30 354 0.9 1.7 0.00 0.00 0.00 67 1032.1
20200222063003 30 354 0.9 1.7 0.00 0.00 0.00 68 1032.1
20200222062853 30 354 0.9 1.7 0.00 0.00 0.00 68 1032.0
20200222062801 30 354 0.9 1.7 0.00 0.00 0.00 68 1032.1
20200222062719 30 354 0.9 1.7 0.00 0.00 0.00 68 1032.1
20200222062607 30 359 0.0 1.7 0.00 0.00 0.00 68 1032.1
20200222062456 30 4 0.0 1.7 0.00 0.00 0.00 68 1032.1
20200222062403 30 4 0.0 1.7 0.00 0.00 0.00 68 1032.1
20200222062311 30 4 0.0 1.7 0.00 0.00 0.00 68 1032.1
20200222062232 30 4 0.0 1.7 0.00 0.00 0.00 68 1032.1
20200222062056 30 4 0.0 1.7 0.00 0.00 0.00 68 1032.1
20200222062005 30 4 0.0 1.7 0.00 0.00 0.00 68 1032.1
20200222061853 30 4 0.0 1.7 0.00 0.00 0.00 69 1032.1
20200222061801 30 4 0.0 1.7 0.00 0.00 0.00 69 1032.1
20200222061719 30 4 0.0 1.7 0.00 0.00 0.00 69 1032.1
20200222061609 30 4 0.0 1.7 0.00 0.00 0.00 69 1032.1
20200222061500 30 4 0.9 1.7 0.00 0.00 0.00 69 1032.1
20200222061407 30 4 0.9 1.7 0.00 0.00 0.00 69 1032.0
20200222061253 30 4 0.9 2.6 0.00 0.00 0.00 69 1032.1
20200222061214 30 4 0.9 2.6 0.00 0.00 0.00 69 1032.1
20200222061059 30 4 0.9 2.6 0.00 0.00 0.00 69 1032.1
20200222061006 30 4 0.0 2.6 0.00 0.00 0.00 69 1032.2
20200222060913 30 4 0.0 2.6 0.00 0.00 0.00 69 1032.2
20200222060801 30 4 0.9 2.6 0.00 0.00 0.00 69 1032.1
20200222060719 30 4 0.9 2.6 0.00 0.00 0.00 69 1032.2
20200222060607 30 4 0.9 2.6 0.00 0.00 0.00 69 1032.2
20200222060459 30 4 1.7 2.6 0.00 0.00 0.00 70 1032.1
20200222060407 30 4 0.9 1.7 0.00 0.00 0.00 70 1032.2
20200222060312 30 4 0.9 2.6 0.00 0.00 0.00 70 1032.1
20200222060238 30 4 0.9 2.6 0.00 0.00 0.00 70 1032.1
20200222060120 30 4 0.9 2.6 0.00 0.00 0.00 70 1032.1
20200222055954 30 4 0.9 2.6 0.00 0.00 0.00 70 1032.2
20200222055900 30 4 0.9 2.6 0.00 0.00 0.00 70 1032.2
20200222055807 30 4 0.9 2.6 0.00 0.00 0.00 69 1032.2
20200222055726 30 4 0.9 2.6 0.00 0.00 0.00 69 1032.2
20200222055553 31 4 1.7 2.6 0.00 0.00 0.00 69 1032.2
20200222055507 31 4 1.7 2.6 0.00 0.00 0.00 69 1032.2
20200222055413 31 4 1.7 2.6 0.00 0.00 0.00 69 1032.2
20200222055259 31 4 0.9 2.6 0.00 0.00 0.00 69 1032.2
20200222055219 31 4 0.9 3.5 0.00 0.00 0.00 69 1032.2
20200222055106 31 4 0.9 3.5 0.00 0.00 0.00 69 1032.2
20200222054953 31 4 0.9 3.5 0.00 0.00 0.00 69 1032.2
20200222054901 31 4 0.9 3.5 0.00 0.00 0.00 69 1032.2
20200222054811 31 4 0.9 3.5 0.00 0.00 0.00 68 1032.2
20200222054728 31 4 1.7 3.5 0.00 0.00 0.00 68 1032.2
20200222054555 31 4 2.6 3.5 0.00 0.00 0.00 68 1032.2
20200222054509 31 4 2.6 3.5 0.00 0.00 0.00 68 1032.3
20200222054356 31 4 2.6 3.5 0.00 0.00 0.00 67 1032.3
20200222054304 31 4 2.6 3.5 0.00 0.00 0.00 67 1032.3
20200222054225 31 4 2.6 3.5 0.00 0.00 0.00 67 1032.3
20200222054053 31 4 2.6 3.5 0.00 0.00 0.00 67 1032.3
20200222054003 31 4 2.6 3.5 0.00 0.00 0.00 66 1032.3
20200222053714 31 4 2.6 3.5 0.00 0.00 0.00 66 1032.3
20200222053603 31 4 2.6 3.5 0.00 0.00 0.00 66 1032.4
20200222053453 31 4 1.7 4.3 0.00 0.00 0.00 66 1032.3
20200222053403 31 4 0.9 4.3 0.00 0.00 0.00 66 1032.4
20200222053312 31 4 1.7 4.3 0.00 0.00 0.00 66 1032.4
20200222053233 31 4 1.7 4.3 0.00 0.00 0.00 66 1032.4
20200222053057 31 10 2.6 4.3 0.00 0.00 0.00 66 1032.3
20200222053003 31 10 2.6 4.3 0.00 0.00 0.00 66 1032.3
20200222052913 31 10 2.6 4.3 0.00 0.00 0.00 66 1032.4
20200222052801 31 10 2.6 4.3 0.00 0.00 0.00 66 1032.3
20200222052721 31 10 2.6 4.3 0.00 0.00 0.00 66 1032.3
20200222052608 31 10 2.6 4.3 0.00 0.00 0.00 66 1032.3
20200222052500 31 9 3.5 4.3 0.00 0.00 0.00 66 1032.4
20200222052408 31 9 2.6 4.3 0.00 0.00 0.00 66 1032.4
20200222052314 31 9 2.6 4.3 0.00 0.00 0.00 66 1032.4
20200222052234 31 8 3.5 4.3 0.00 0.00 0.00 66 1032.4
20200222052100 31 8 2.6 4.3 0.00 0.00 0.00 66 1032.4
20200222051854 31 8 2.6 3.5 0.00 0.00 0.00 66 1032.5
20200222051800 31 8 2.6 3.5 0.00 0.00 0.00 66 1032.5
20200222051719 32 8 2.6 3.5 0.00 0.00 0.00 66 1032.5
20200222051605 32 8 1.7 3.5 0.00 0.00 0.00 66 1032.5
20200222051457 32 8 1.7 3.5 0.00 0.00 0.00 66 1032.5
20200222051405 32 8 1.7 3.5 0.00 0.00 0.00 66 1032.5
20200222051255 32 8 2.6 3.5 0.00 0.00 0.00 66 1032.5
20200222051214 32 8 2.6 3.5 0.00 0.00 0.00 66 1032.5
20200222051103 32 8 1.7 4.3 0.00 0.00 0.00 65 1032.5
20200222051012 32 8 1.7 4.3 0.00 0.00 0.00 65 1032.5
20200222050857 32 8 1.7 4.3 0.00 0.00 0.00 65 1032.5
20200222050806 32 8 1.7 4.3 0.00 0.00 0.00 65 1032.5
20200222050726 32 8 1.7 4.3 0.00 0.00 0.00 65 1032.5
20200222050559 32 4 2.6 4.3 0.00 0.00 0.00 65 1032.5
20200222050505 32 4 2.6 4.3 0.00 0.00 0.00 64 1032.6
20200222050413 32 4 2.6 4.3 0.00 0.00 0.00 64 1032.6
20200222050302 32 4 2.6 4.3 0.00 0.00 0.00 64 1032.6
20200222050221 32 8 2.6 4.3 0.00 0.00 0.00 64 1032.6
20200222050108 32 4 1.7 4.3 0.00 0.00 0.00 64 1032.7
20200222050013 32 8 1.7 4.3 0.00 0.00 0.00 64 1032.7
20200222045901 32 4 1.7 4.3 0.00 0.00 0.00 64 1032.7
20200222045809 32 354 1.7 4.3 0.00 0.00 0.00 64 1032.7
20200222045729 32 12 1.7 4.3 0.00 0.00 0.00 64 1032.6
20200222045603 32 359 1.7 4.3 0.00 0.00 0.00 64 1032.7
20200222045511 32 354 1.7 4.3 0.00 0.00 0.00 64 1032.6
20200222045358 32 359 1.7 4.3 0.00 0.00 0.00 64 1032.6
20200222045305 32 359 1.7 4.3 0.00 0.00 0.00 64 1032.6
20200222045225 32 359 1.7 4.3 0.00 0.00 0.00 65 1032.6
20200222045053 32 354 1.7 4.3 0.00 0.00 0.00 65 1032.5
20200222044959 32 354 1.7 4.3 0.00 0.00 0.00 65 1032.5
20200222044907 32 359 1.7 4.3 0.00 0.00 0.00 65 1032.5
20200222044756 32 4 2.6 4.3 0.00 0.00 0.00 65 1032.5
20200222044715 32 354 1.7 4.3 0.00 0.00 0.00 65 1032.5
20200222044607 32 8 2.6 4.3 0.00 0.00 0.00 65 1032.5
20200222044456 32 4 2.6 4.3 0.00 0.00 0.00 65 1032.5
20200222044404 32 359 2.6 4.3 0.00 0.00 0.00 65 1032.5
20200222044311 32 354 2.6 4.3 0.00 0.00 0.00 65 1032.5
20200222044231 32 354 2.6 4.3 0.00 0.00 0.00 65 1032.5
20200222044100 32 349 1.7 4.3 0.00 0.00 0.00 65 1032.5
20200222044008 32 8 1.7 4.3 0.00 0.00 0.00 65 1032.5
20200222043855 32 14 1.7 4.3 0.00 0.00 0.00 65 1032.5
20200222043803 32 14 1.7 4.3 0.00 0.00 0.00 65 1032.6
20200222043725 32 21 1.7 4.3 0.00 0.00 0.00 65 1032.6
20200222043553 32 17 1.7 4.3 0.00 0.00 0.00 64 1032.6
20200222043504 32 10 1.7 4.3 0.00 0.00 0.00 64 1032.6
20200222043353 32 14 2.6 4.3 0.00 0.00 0.00 64 1032.6
20200222043259 32 4 2.6 4.3 0.00 0.00 0.00 64 1032.7
20200222043217 32 4 1.7 4.3 0.00 0.00 0.00 64 1032.7
20200222043105 32 4 1.7 2.6 0.00 0.00 0.00 64 1032.8
20200222043013 32 14 1.7 2.6 0.00 0.00 0.00 64 1032.8
20200222042857 33 359 1.7 2.6 0.00 0.00 0.00 64 1032.8
20200222042807 33 359 1.7 2.6 0.00 0.00 0.00 64 1032.8
20200222042726 33 354 1.7 2.6 0.00 0.00 0.00 64 1032.8
20200222042553 33 348 1.7 2.6 0.00 0.00 0.00 64 1032.8
20200222042408 33 359 1.7 2.6 0.00 0.00 0.00 64 1032.9
20200222042257 33 347 1.7 2.6 0.00 0.00 0.00 64 1032.8
20200222042215 33 350 1.7 2.6 0.00 0.00 0.00 64 1032.8
20200222042103 33 359 1.7 2.6 0.00 0.00 0.00 64 1032.8
20200222042011 33 359 1.7 3.5 0.00 0.00 0.00 64 1032.8
20200222041857 33 354 1.7 3.5 0.00 0.00 0.00 64 1032.8
20200222041804 33 354 1.7 4.3 0.00 0.00 0.00 64 1032.8
20200222041725 33 359 1.7 4.3 0.00 0.00 0.00 64 1032.8
20200222041557 33 359 1.7 4.3 0.00 0.00 0.00 64 1032.8
20200222041505 33 359 1.7 4.3 0.00 0.00 0.00 64 1032.8
20200222041352 33 10 1.7 4.3 0.00 0.00 0.00 64 1032.9
20200222041221 33 4 1.7 4.3 0.00 0.00 0.00 64 1032.9
20200222041107 33 354 1.7 4.3 0.00 0.00 0.00 64 1032.9
20200222040953 33 354 1.7 4.3 0.00 0.00 0.00 64 1032.9
20200222040903 33 354 1.7 4.3 0.00 0.00 0.00 64 1032.8
20200222040807 33 354 1.7 4.3 0.00 0.00 0.00 64 1032.8
20200222040727 33 354 1.7 4.3 0.00 0.00 0.00 64 1032.9
20200222040559 33 354 1.7 4.3 0.00 0.00 0.00 64 1032.8
20200222040509 33 9 1.7 4.3 0.00 0.00 0.00 64 1032.8
20200222040355 33 359 2.6 4.3 0.00 0.00 0.00 64 1032.8
20200222040302 33 359 1.7 4.3 0.00 0.00 0.00 64 1032.8
20200222040223 33 359 0.9 2.6 0.00 0.00 0.00 64 1032.8
20200222040110 33 359 1.7 2.6 0.00 0.00 0.00 64 1032.8
20200222040015 33 4 1.7 2.6 0.00 0.00 0.00 63 1032.8
20200222035859 33 34 1.7 2.6 0.00 0.00 0.00 63 1032.9
20200222035807 33 354 1.7 2.6 0.00 0.00 0.00 64 1032.9
20200222035726 33 354 1.7 3.5 0.00 0.00 0.00 64 1032.9
20200222035558 33 359 1.7 3.5 0.00 0.00 0.00 64 1032.9
20200222035507 33 354 1.7 3.5 0.00 0.00 0.00 64 1032.9
20200222035415 33 345 0.9 3.5 0.00 0.00 0.00 64 1032.9
20200222035256 33 349 1.7 3.5 0.00 0.00 0.00 64 1032.9
20200222035219 33 345 1.7 3.5 0.00 0.00 0.00 64 1032.9
20200222035107 33 359 1.7 3.5 0.00 0.00 0.00 64 1032.9
20200222035013 33 4 1.7 3.5 0.00 0.00 0.00 64 1032.9
20200222034901 33 4 1.7 3.5 0.00 0.00 0.00 64 1032.9
20200222034810 33 347 1.7 3.5 0.00 0.00 0.00 63 1032.9
20200222034730 33 24 1.7 3.5 0.00 0.00 0.00 64 1032.9
20200222034557 33 359 1.7 2.6 0.00 0.00 0.00 64 1032.9
20200222034505 33 4 1.7 2.6 0.00 0.00 0.00 64 1032.9
20200222034353 33 354 1.7 2.6 0.00 0.00 0.00 64 1032.9
20200222034301 33 359 1.7 2.6 0.00 0.00 0.00 64 1032.9
20200222034219 33 348 1.7 2.6 0.00 0.00 0.00 63 1032.9
20200222034107 33 359 1.7 2.6 0.00 0.00 0.00 64 1032.9
20200222033955 33 349 1.7 2.6 0.00 0.00 0.00 64 1032.9
20200222033859 33 359 1.7 2.6 0.00 0.00 0.00 63 1032.9
20200222033808 33 350 1.7 2.6 0.00 0.00 0.00 63 1032.9
20200222033727 33 354 1.7 2.6 0.00 0.00 0.00 63 1032.9
20200222033559 33 359 1.7 2.6 0.00 0.00 0.00 63 1032.9
20200222033507 33 348 1.7 2.6 0.00 0.00 0.00 64 1032.9
20200222033355 33 350 1.7 2.6 0.00 0.00 0.00 63 1033.0
20200222033305 33 354 1.7 2.6 0.00 0.00 0.00 63 1033.0
20200222033225 33 354 1.7 2.6 0.00 0.00 0.00 63 1033.0
20200222033053 33 359 1.7 2.6 0.00 0.00 0.00 63 1032.9
20200222033003 33 354 1.7 2.6 0.00 0.00 0.00 63 1032.9
20200222032911 33 359 1.7 2.6 0.00 0.00 0.00 63 1032.9
20200222032802 33 359 1.7 2.6 0.00 0.00 0.00 63 1032.9
20200222032726 33 4 1.7 2.6 0.00 0.00 0.00 63 1032.9
20200222032612 33 4 1.7 2.6 0.00 0.00 0.00 63 1032.8
20200222032459 33 354 1.7 2.6 0.00 0.00 0.00 63 1032.9
20200222032407 33 18 1.7 2.6 0.00 0.00 0.00 64 1032.9
20200222032315 33 354 1.7 1.7 0.00 0.00 0.00 64 1032.9
20200222032234 33 359 1.7 1.7 0.00 0.00 0.00 64 1032.9
20200222032100 33 347 1.7 2.6 0.00 0.00 0.00 64 1032.9
20200222032009 33 354 0.9 2.6 0.00 0.00 0.00 64 1032.9
20200222031856 33 347 0.9 2.6 0.00 0.00 0.00 64 1032.9
20200222031804 33 354 0.9 2.6 0.00 0.00 0.00 64 1032.9
20200222031728 33 354 0.9 2.6 0.00 0.00 0.00 64 1032.9
20200222031556 33 4 1.7 2.6 0.00 0.00 0.00 64 1032.8
20200222031504 33 15 0.9 2.6 0.00 0.00 0.00 65 1032.8
20200222031352 33 10 0.9 2.6 0.00 0.00 0.00 65 1032.8
20200222031301 33 12 1.7 2.6 0.00 0.00 0.00 65 1032.8
20200222031221 33 16 1.7 2.6 0.00 0.00 0.00 65 1032.8
20200222031107 33 359 1.7 2.6 0.00 0.00 0.00 65 1032.8
20200222030955 33 33 1.7 2.6 0.00 0.00 0.00 65 1032.8
20200222030905 33 39 1.7 2.6 0.00 0.00 0.00 65 1032.8
20200222030814 33 37 1.7 2.6 0.00 0.00 0.00 65 1032.8
20200222030738 33 34 1.7 2.6 0.00 0.00 0.00 65 1032.8
20200222030626 33 37 1.7 2.6 0.00 0.00 0.00 65 1032.9
20200222030533 33 29 1.7 2.6 0.00 0.00 0.00 66 1032.9
20200222030431 33 29 1.7 2.6 0.00 0.00 0.00 66 1032.9
20200222030324 33 31 1.7 2.6 0.00 0.00 0.00 66 1032.9
20200222030229 33 30 1.7 2.6 0.00 0.00 0.00 66 1032.9
20200222030106 33 29 1.7 2.6 0.00 0.00 0.00 66 1033.0
20200222030007 33 32 1.7 2.6 0.00 0.00 0.00 66 1032.9
20200222025914 33 34 1.7 2.6 0.00 0.00 0.00 66 1033.0
20200222025807 33 33 1.7 2.6 0.00 0.00 0.00 66 1033.0
20200222025724 33 31 1.7 2.6 0.00 0.00 0.00 66 1032.9
20200222025605 33 34 1.7 2.6 0.00 0.00 0.00 66 1033.0
20200222025508 33 34 1.7 2.6 0.00 0.00 0.00 66 1032.9
20200222025417 33 33 1.7 2.6 0.00 0.00 0.00 66 1033.0
20200222025323 33 39 1.7 2.6 0.00 0.00 0.00 66 1033.0
20200222025241 33 36 1.7 2.6 0.00 0.00 0.00 65 1033.0
20200222025122 33 40 1.7 2.6 0.00 0.00 0.00 65 1033.0
20200222025015 33 41 1.7 2.6 0.00 0.00 0.00 65 1033.0
20200222024915 33 43 1.7 2.6 0.00 0.00 0.00 65 1033.0
20200222024817 33 39 1.7 2.6 0.00 0.00 0.00 65 1033.0
20200222024729 33 38 1.7 2.6 0.00 0.00 0.00 64 1033.0
20200222024605 33 46 1.7 2.6 0.00 0.00 0.00 64 1033.0
20200222024504 33 43 1.7 2.6 0.00 0.00 0.00 64 1033.0
20200222024352 33 39 0.9 1.7 0.00 0.00 0.00 64 1033.0
20200222024259 33 39 0.9 1.7 0.00 0.00 0.00 64 1033.0
20200222024223 33 38 0.9 1.7 0.00 0.00 0.00 64 1033.0
20200222024111 34 36 0.9 1.7 0.00 0.00 0.00 64 1033.0
20200222024001 34 35 0.9 1.7 0.00 0.00 0.00 63 1033.0
20200222023909 34 36 0.9 1.7 0.00 0.00 0.00 63 1033.1
20200222023753 34 35 0.9 1.7 0.00 0.00 0.00 63 1033.1
20200222023713 34 35 0.9 1.7 0.00 0.00 0.00 63 1033.1
20200222023601 34 33 0.9 2.6 0.00 0.00 0.00 63 1033.1
20200222023509 34 31 0.9 2.6 0.00 0.00 0.00 63 1033.1
20200222023354 34 28 0.0 2.6 0.00 0.00 0.00 63 1033.1
20200222023300 34 28 0.0 2.6 0.00 0.00 0.00 63 1033.2
20200222023224 34 28 0.9 2.6 0.00 0.00 0.00 63 1033.1
20200222023055 34 29 0.9 2.6 0.00 0.00 0.00 63 1033.2
20200222023001 34 28 1.7 2.6 0.00 0.00 0.00 63 1033.2
20200222022910 34 27 1.7 2.6 0.00 0.00 0.00 63 1033.2
20200222022758 34 27 1.7 2.6 0.00 0.00 0.00 63 1033.2
20200222022718 34 30 1.7 1.7 0.00 0.00 0.00 63 1033.1
20200222022604 34 27 0.9 1.7 0.00 0.00 0.00 63 1033.2
20200222022512 34 29 0.9 1.7 0.00 0.00 0.00 63 1033.1
20200222022358 34 29 0.9 1.7 0.00 0.00 0.00 63 1033.1
20200222022308 34 31 0.9 1.7 0.00 0.00 0.00 63 1033.1
20200222022232 34 30 0.9 1.7 0.00 0.00 0.00 63 1033.1
20200222022057 34 28 0.9 2.6 0.00 0.00 0.00 63 1033.1
20200222022005 34 27 0.9 2.6 0.00 0.00 0.00 63 1033.1
20200222021913 34 25 0.9 2.6 0.00 0.00 0.00 63 1033.1
20200222021758 34 26 1.7 2.6 0.00 0.00 0.00 63 1033.0
20200222021717 34 23 1.7 2.6 0.00 0.00 0.00 63 1033.1
20200222021605 34 29 1.7 2.6 0.00 0.00 0.00 63 1033.1
20200222021515 34 25 1.7 2.6 0.00 0.00 0.00 63 1033.1
20200222021359 34 22 0.9 2.6 0.00 0.00 0.00 63 1033.1
20200222021309 34 31 0.9 2.6 0.00 0.00 0.00 63 1033.1
20200222021233 34 35 1.7 2.6 0.00 0.00 0.00 63 1033.1
20200222021056 34 43 1.7 1.7 0.00 0.00 0.00 63 1033.0
20200222021003 34 41 1.7 1.7 0.00 0.00 0.00 63 1033.1
20200222020911 34 40 0.9 1.7 0.00 0.00 0.00 63 1033.1
20200222020759 34 38 0.9 1.7 0.00 0.00 0.00 62 1033.0
20200222020717 34 37 1.7 1.7 0.00 0.00 0.00 62 1033.1
20200222020605 35 44 0.9 1.7 0.00 0.00 0.00 62 1033.0
20200222020514 35 39 1.7 1.7 0.00 0.00 0.00 62 1033.1
20200222020358 35 34 1.7 1.7 0.00 0.00 0.00 61 1033.2
20200222020306 35 38 1.7 1.7 0.00 0.00 0.00 61 1033.2
20200222020229 35 37 1.7 1.7 0.00 0.00 0.00 61 1033.2
20200222020118 35 35 0.9 1.7 0.00 0.00 0.00 61 1033.2
20200222015956 35 37 0.9 1.7 0.00 0.00 0.00 61 1033.2
20200222015906 35 37 1.7 1.7 0.00 0.00 0.00 60 1033.2
20200222015814 35 36 1.7 1.7 0.00 0.00 0.00 60 1033.2
20200222015733 35 36 1.7 1.7 0.00 0.00 0.00 60 1033.2
20200222015609 35 27 1.7 1.7 0.00 0.00 0.00 59 1033.3
20200222015511 35 23 0.9 1.7 0.00 0.00 0.00 59 1033.3
20200222015411 35 24 0.9 1.7 0.00 0.00 0.00 59 1033.3
20200222015311 35 26 1.7 1.7 0.00 0.00 0.00 59 1033.3
20200222015228 35 25 1.7 2.6 0.00 0.00 0.00 59 1033.4
20200222015057 35 23 1.7 2.6 0.00 0.00 0.00 59 1033.3
20200222015006 35 22 0.9 2.6 0.00 0.00 0.00 59 1033.3
20200222014914 35 18 0.9 2.6 0.00 0.00 0.00 59 1033.3
20200222014757 35 25 0.9 2.6 0.00 0.00 0.00 59 1033.3
20200222014716 35 18 0.9 2.6 0.00 0.00 0.00 59 1033.3
20200222014603 35 18 1.7 2.6 0.00 0.00 0.00 58 1033.3
20200222014510 35 17 1.7 2.6 0.00 0.00 0.00 58 1033.3
20200222014355 35 9 1.7 2.6 0.00 0.00 0.00 58 1033.4
20200222014303 35 16 1.7 2.6 0.00 0.00 0.00 58 1033.5
20200222014223 35 8 0.9 2.6 0.00 0.00 0.00 58 1033.5
20200222014054 35 16 0.9 2.6 0.00 0.00 0.00 58 1033.5
20200222014000 35 23 0.9 2.6 0.00 0.00 0.00 58 1033.5
20200222013907 35 354 0.9 2.6 0.00 0.00 0.00 58 1033.5
20200222013816 35 4 0.9 2.6 0.00 0.00 0.00 58 1033.5
20200222013736 35 16 0.9 2.6 0.00 0.00 0.00 58 1033.5
20200222013557 36 16 1.7 2.6 0.00 0.00 0.00 58 1033.5
20200222013507 36 354 1.7 2.6 0.00 0.00 0.00 58 1033.5
20200222013355 36 18 1.7 2.6 0.00 0.00 0.00 58 1033.5
20200222013301 36 8 1.7 2.6 0.00 0.00 0.00 58 1033.5
20200222013221 36 359 1.7 2.6 0.00 0.00 0.00 58 1033.5
20200222013053 36 14 1.7 2.6 0.00 0.00 0.00 58 1033.5
20200222012958 36 13 1.7 2.6 0.00 0.00 0.00 59 1033.5
20200222012906 36 16 1.7 2.6 0.00 0.00 0.00 59 1033.5
20200222012755 36 25 1.7 3.5 0.00 0.00 0.00 59 1033.5
20200222012715 36 25 1.7 3.5 0.00 0.00 0.00 59 1033.5
20200222012600 36 37 2.6 3.5 0.00 0.00 0.00 59 1033.5
20200222012511 36 30 1.7 3.5 0.00 0.00 0.00 59 1033.5
20200222012358 36 31 1.7 3.5 0.00 0.00 0.00 59 1033.5
20200222012306 36 29 1.7 3.5 0.00 0.00 0.00 59 1033.4
20200222012225 36 34 1.7 3.5 0.00 0.00 0.00 59 1033.5
20200222012058 36 35 2.6 3.5 0.00 0.00 0.00 59 1033.4
20200222012004 36 38 2.6 3.5 0.00 0.00 0.00 59 1033.4
20200222011910 36 51 2.6 3.5 0.00 0.00 0.00 59 1033.5
20200222011801 36 34 1.7 2.6 0.00 0.00 0.00 58 1033.5
20200222011721 36 35 1.7 2.6 0.00 0.00 0.00 58 1033.5
20200222011609 36 41 1.7 2.6 0.00 0.00 0.00 58 1033.5
20200222011457 36 31 1.7 2.6 0.00 0.00 0.00 57 1033.5
20200222011405 36 35 1.7 2.6 0.00 0.00 0.00 57 1033.5
20200222011314 36 37 0.9 2.6 0.00 0.00 0.00 57 1033.6
20200222011232 36 37 0.9 2.6 0.00 0.00 0.00 57 1033.6
20200222011104 36 40 1.7 2.6 0.00 0.00 0.00 55 1033.6
20200222011013 36 36 1.7 2.6 0.00 0.00 0.00 55 1033.5
20200222010856 36 25 1.7 2.6 0.00 0.00 0.00 55 1033.6
20200222010806 36 21 1.7 2.6 0.00 0.00 0.00 55 1033.6
20200222010727 37 35 1.7 2.6 0.00 0.00 0.00 55 1033.6
20200222010611 37 28 1.7 2.6 0.00 0.00 0.00 55 1033.6
20200222010459 37 30 1.7 2.6 0.00 0.00 0.00 54 1033.6
20200222010407 37 13 1.7 2.6 0.00 0.00 0.00 54 1033.6
20200222010314 37 10 1.7 2.6 0.00 0.00 0.00 54 1033.6
20200222010234 37 12 0.9 2.6 0.00 0.00 0.00 54 1033.6
20200222010107 37 12 1.7 2.6 0.00 0.00 0.00 54 1033.7
20200222010011 37 12 1.7 2.6 0.00 0.00 0.00 54 1033.7
20200222005854 37 4 1.7 2.6 0.00 0.00 0.00 54 1033.7
20200222005803 37 10 1.7 2.6 0.00 0.00 0.00 54 1033.7
20200222005723 37 4 1.7 2.6 0.00 0.00 0.00 54 1033.7
20200222005611 37 8 0.9 2.6 0.00 0.00 0.00 54 1033.7
20200222005455 37 345 1.7 2.6 0.00 0.00 0.00 54 1033.7
20200222005404 37 354 1.7 2.6 0.00 0.00 0.00 54 1033.7
20200222005312 37 354 1.7 2.6 0.00 0.00 0.00 54 1033.7
20200222005233 37 354 1.7 2.6 0.00 0.00 0.00 54 1033.7
20200222005058 37 359 1.7 2.6 0.00 0.00 0.00 54 1033.7
20200222005007 37 4 1.7 2.6 0.00 0.00 0.00 54 1033.7
20200222004855 37 359 1.7 2.6 0.00 0.00 0.00 53 1033.7
20200222004801 37 359 1.7 2.6 0.00 0.00 0.00 53 1033.7
20200222004721 37 8 1.7 2.6 0.00 0.00 0.00 53 1033.7
20200222004611 37 4 1.7 2.6 0.00 0.00 0.00 53 1033.7
20200222004456 37 8 0.9 2.6 0.00 0.00 0.00 53 1033.7
20200222004404 37 11 0.9 2.6 0.00 0.00 0.00 53 1033.7
20200222004252 37 14 0.9 2.6 0.00 0.00 0.00 53 1033.7
20200222004213 37 14 0.9 2.6 0.00 0.00 0.00 53 1033.7
20200222004103 37 14 0.9 2.6 0.00 0.00 0.00 53 1033.7
20200222004012 37 12 0.9 2.6 0.00 0.00 0.00 53 1033.7
20200222003900 37 14 0.9 2.6 0.00 0.00 0.00 53 1033.7
20200222003806 37 13 1.7 2.6 0.00 0.00 0.00 53 1033.6
20200222003729 37 20 1.7 2.6 0.00 0.00 0.00 53 1033.6
20200222003558 37 25 0.9 2.6 0.00 0.00 0.00 53 1033.6
20200222003507 37 359 0.9 2.6 0.00 0.00 0.00 53 1033.6
20200222003413 37 359 1.7 2.6 0.00 0.00 0.00 53 1033.6
20200222003259 37 354 0.9 2.6 0.00 0.00 0.00 53 1033.6
20200222003219 37 354 1.7 2.6 0.00 0.00 0.00 53 1033.6
20200222003110 38 8 1.7 2.6 0.00 0.00 0.00 53 1033.6
20200222002957 38 10 1.7 2.6 0.00 0.00 0.00 53 1033.6
20200222002906 38 14 1.7 2.6 0.00 0.00 0.00 53 1033.6
20200222002754 38 10 1.7 2.6 0.00 0.00 0.00 53 1033.6
20200222002713 38 4 1.7 2.6 0.00 0.00 0.00 53 1033.6
20200222002602 38 4 1.7 2.6 0.00 0.00 0.00 53 1033.6
20200222002511 38 15 1.7 2.6 0.00 0.00 0.00 53 1033.6
20200222002359 38 12 1.7 2.6 0.00 0.00 0.00 53 1033.6
20200222002306 38 10 1.7 2.6 0.00 0.00 0.00 53 1033.6
20200222002225 38 4 0.9 2.6 0.00 0.00 0.00 53 1033.6
20200222002116 38 354 0.9 2.6 0.00 0.00 0.00 53 1033.6
20200222001958 38 354 1.7 2.6 0.00 0.00 0.00 53 1033.6
20200222001905 38 354 1.7 2.6 0.00 0.00 0.00 53 1033.6
20200222001755 38 4 0.9 2.6 0.00 0.00 0.00 53 1033.6
20200222001716 38 348 0.9 2.6 0.00 0.00 0.00 53 1033.6
20200222001604 38 10 1.7 2.6 0.00 0.00 0.00 53 1033.6
20200222001510 38 15 1.7 2.6 0.00 0.00 0.00 52 1033.6
20200222001359 38 359 0.9 2.6 0.00 0.00 0.00 53 1033.6
20200222001308 38 4 1.7 1.7 0.00 0.00 0.00 53 1033.5
20200222001227 38 4 0.9 1.7 0.00 0.00 0.00 53 1033.5
20200222001100 38 8 0.9 2.6 0.00 0.00 0.00 53 1033.5
20200222001008 38 4 0.9 2.6 0.00 0.00 0.00 53 1033.5
20200222000853 38 359 0.9 2.6 0.00 0.00 0.00 53 1033.6
20200222000800 38 4 0.9 2.6 0.00 0.00 0.00 53 1033.5
20200222000721 38 4 0.9 2.6 0.00 0.00 0.00 52 1033.6
20200222000609 38 359 0.9 2.6 0.00 0.00 0.00 52 1033.5
20200222000456 38 4 0.9 2.6 0.00 0.00 0.00 52 1033.5
20200222000403 38 4 0.9 2.6 0.00 0.00 0.00 52 1033.5
20200222000313 39 359 1.7 2.6 0.00 0.00 0.00 52 1033.5
20200222000217 39 354 1.7 2.6 0.00 0.00 0.00 52 1033.5
20200222000102 39 12 1.7 2.6 0.00 0.00 0.00 52 1033.5
20200222000006 39 14 1.7 3.5 0.00 0.00 0.00 52 1033.5
20200221235855 39 11 1.7 3.5 0.00 0.00 0.00 52 1033.5
20200221235804 39 16 1.7 3.5 0.00 0.00 0.00 52 1033.5
20200221235723 39 16 1.7 3.5 0.00 0.00 0.00 51 1033.5
20200221235612 39 8 1.7 3.5 0.00 0.00 0.00 51 1033.5
20200221235459 39 354 1.7 3.5 0.00 0.00 0.00 51 1033.4
20200221235406 39 33 1.7 3.5 0.00 0.00 0.00 51 1033.5
20200221235254 39 354 1.7 3.5 0.00 0.00 0.00 51 1033.5
20200221235219 39 359 1.7 3.5 0.00 0.00 0.00 51 1033.4
20200221234901 39 12 1.7 4.3 0.00 0.00 0.00 50 1033.5
20200221234810 39 8 1.7 4.3 0.00 0.00 0.00 51 1033.5
20200221234730 39 354 1.7 4.3 0.00 0.00 0.00 51 1033.5
20200221234557 39 4 1.7 4.3 0.00 0.00 0.00 51 1033.5
20200221234504 39 14 1.7 4.3 0.00 0.00 0.00 50 1033.5
20200221234409 39 345 1.7 4.3 0.00 0.00 0.00 50 1033.5
20200221234256 39 18 1.7 4.3 0.00 0.00 0.00 51 1033.5
20200221234221 40 25 1.7 3.5 0.00 0.00 0.00 51 1033.5
20200221234107 40 30 1.7 2.6 0.00 0.00 0.00 50 1033.5
20200221233955 40 359 1.7 2.6 0.00 0.00 0.00 50 1033.5
20200221233904 40 10 0.9 2.6 0.00 0.00 0.00 50 1033.5
20200221233811 40 4 0.9 3.5 0.00 0.00 0.00 50 1033.5
20200221233728 40 9 1.7 3.5 0.00 0.00 0.00 50 1033.5
20200221233553 40 11 0.9 3.5 0.00 0.00 0.00 50 1033.5
20200221233501 40 9 0.9 4.3 0.00 0.00 0.00 50 1033.5
20200221233407 40 354 0.9 4.3 0.00 0.00 0.00 50 1033.5
20200221233253 40 354 0.9 4.3 0.00 0.00 0.00 49 1033.5
20200221233218 40 347 0.9 4.3 0.00 0.00 0.00 49 1033.5
20200221233105 40 359 1.7 4.3 0.00 0.00 0.00 49 1033.6
20200221233012 40 359 1.7 4.3 0.00 0.00 0.00 49 1033.6
20200221232859 40 338 1.7 4.3 0.00 0.00 0.00 49 1033.6
20200221232806 40 359 2.6 4.3 0.00 0.00 0.00 49 1033.6
20200221232553 40 348 1.7 4.3 0.00 0.00 0.00 49 1033.6
20200221232501 41 354 1.7 4.3 0.00 0.00 0.00 48 1033.6
20200221232408 41 9 1.7 4.3 0.00 0.00 0.00 48 1033.6
20200221232255 41 10 1.7 4.3 0.00 0.00 0.00 48 1033.5
20200221232230 41 359 2.6 4.3 0.00 0.00 0.00 48 1033.5
20200221232116 41 354 2.6 4.3 0.00 0.00 0.00 48 1033.5
20200221232001 41 354 2.6 5.2 0.00 0.00 0.00 48 1033.5
20200221231909 41 9 2.6 5.2 0.00 0.00 0.00 48 1033.5
20200221231757 41 359 2.6 5.2 0.00 0.00 0.00 47 1033.6
20200221231717 41 4 3.5 5.2 0.00 0.00 0.00 47 1033.5
20200221231602 41 359 2.6 5.2 0.00 0.00 0.00 47 1033.6
20200221231511 41 341 1.7 5.2 0.00 0.00 0.00 48 1033.6
20200221231305 41 343 2.6 5.2 0.00 0.00 0.00 48 1033.5
20200221231228 41 359 2.6 5.2 0.00 0.00 0.00 47 1033.6
20200221231054 41 27 3.5 5.2 0.00 0.00 0.00 47 1033.5
20200221230959 41 31 2.6 6.1 0.00 0.00 0.00 47 1033.6
20200221230905 41 359 2.6 4.3 0.00 0.00 0.00 47 1033.6
20200221230812 41 8 2.6 5.2 0.00 0.00 0.00 46 1033.5
20200221230731 41 4 2.6 5.2 0.00 0.00 0.00 46 1033.5
20200221230554 41 10 2.6 5.2 0.00 0.00 0.00 46 1033.5
20200221230501 41 339 2.6 5.2 0.00 0.00 0.00 46 1033.5
20200221230411 41 27 2.6 5.2 0.00 0.00 0.00 46 1033.5
20200221230300 41 32 1.7 7.0 0.00 0.00 0.00 47 1033.5
20200221230235 41 41 1.7 7.0 0.00 0.00 0.00 47 1033.5
20200221230059 41 4 2.6 7.0 0.00 0.00 0.00 46 1033.5
20200221230005 41 4 3.5 7.0 0.00 0.00 0.00 46 1033.5
20200221225913 41 334 3.5 7.0 0.00 0.00 0.00 46 1033.4
20200221225758 41 27 3.5 7.0 0.00 0.00 0.00 46 1033.5
20200221225717 41 10 3.5 7.0 0.00 0.00 0.00 46 1033.5
20200221225607 42 18 2.6 7.0 0.00 0.00 0.00 47 1033.5
20200221225455 42 25 3.5 7.8 0.00 0.00 0.00 45 1033.5
20200221225402 42 17 3.5 7.8 0.00 0.00 0.00 45 1033.5
20200221225253 42 23 4.3 7.8 0.00 0.00 0.00 45 1033.5
20200221225215 42 4 4.3 7.8 0.00 0.00 0.00 45 1033.6
20200221225103 42 4 4.3 7.8 0.00 0.00 0.00 45 1033.6
20200221225009 42 359 3.5 7.8 0.00 0.00 0.00 45 1033.5
20200221224854 42 12 4.3 7.8 0.00 0.00 0.00 45 1033.5
20200221224803 42 344 3.5 7.8 0.00 0.00 0.00 45 1033.5
20200221224722 42 14 3.5 7.8 0.00 0.00 0.00 46 1033.5
20200221224607 42 13 2.6 7.0 0.00 0.00 0.00 45 1033.5
20200221224452 42 354 3.5 7.0 0.00 0.00 0.00 46 1033.5
20200221224402 42 4 3.5 7.0 0.00 0.00 0.00 46 1033.5
20200221224307 42 4 2.6 5.2 0.00 0.00 0.00 45 1033.5
20200221224231 42 354 2.6 5.2 0.00 0.00 0.00 45 1033.5
20200221224058 42 8 2.6 5.2 0.00 0.00 0.00 45 1033.5
20200221224005 42 359 2.6 5.2 0.00 0.00 0.00 45 1033.5
20200221223853 42 359 1.7 5.2 0.00 0.00 0.00 46 1033.4
20200221223802 42 333 1.7 5.2 0.00 0.00 0.00 47 1033.4
20200221223721 42 12 1.7 5.2 0.00 0.00 0.00 46 1033.4
20200221223609 42 29 1.7 5.2 0.00 0.00 0.00 45 1033.4
20200221223456 42 354 2.6 5.2 0.00 0.00 0.00 45 1033.3
20200221223404 42 8 2.6 6.1 0.00 0.00 0.00 45 1033.4
20200221223253 42 29 1.7 4.3 0.00 0.00 0.00 46 1033.3
20200221223213 42 39 1.7 4.3 0.00 0.00 0.00 46 1033.3
20200221223101 42 342 1.7 4.3 0.00 0.00 0.00 46 1033.3
20200221223012 42 12 1.7 4.3 0.00 0.00 0.00 46 1033.3
20200221222854 42 29 2.6 7.0 0.00 0.00 0.00 46 1033.3
20200221222802 42 23 2.6 7.0 0.00 0.00 0.00 46 1033.3
20200221222723 42 24 2.6 7.0 0.00 0.00 0.00 46 1033.2
20200221222613 42 25 2.6 7.0 0.00 0.00 0.00 45 1033.3
20200221222453 42 18 2.6 7.8 0.00 0.00 0.00 45 1033.2
20200221222402 42 38 2.6 7.8 0.00 0.00 0.00 45 1033.2
20200221222310 42 12 2.6 7.8 0.00 0.00 0.00 45 1033.2
20200221222234 42 25 3.5 7.8 0.00 0.00 0.00 45 1033.2
20200221222058 42 47 3.5 7.8 0.00 0.00 0.00 46 1033.2
20200221222007 42 39 3.5 7.8 0.00 0.00 0.00 45 1033.2
20200221221855 42 60 4.3 7.8 0.00 0.00 0.00 45 1033.2
20200221221801 42 50 3.5 7.8 0.00 0.00 0.00 46 1033.2
20200221221720 42 23 3.5 7.8 0.00 0.00 0.00 48 1033.2
20200221221607 42 37 3.5 7.0 0.00 0.00 0.00 47 1033.1
20200221221515 42 359 4.3 7.8 0.00 0.00 0.00 46 1033.2
20200221221356 42 29 3.5 7.8 0.00 0.00 0.00 46 1033.1
20200221221304 42 29 2.6 7.8 0.00 0.00 0.00 46 1033.1
20200221221228 42 35 2.6 7.8 0.00 0.00 0.00 47 1033.2
20200221221115 42 39 2.6 7.8 0.00 0.00 0.00 46 1033.2
20200221221000 42 46 3.5 7.8 0.00 0.00 0.00 46 1033.2
20200221220909 42 4 3.5 7.8 0.00 0.00 0.00 45 1033.2
20200221220758 42 354 3.5 7.8 0.00 0.00 0.00 44 1033.1
20200221220717 42 316 2.6 7.8 0.00 0.00 0.00 45 1033.2
20200221220605 42 354 3.5 5.2 0.00 0.00 0.00 45 1033.2
20200221220511 42 17 3.5 5.2 0.00 0.00 0.00 45 1033.2
20200221220421 42 14 3.5 5.2 0.00 0.00 0.00 45 1033.3
20200221220324 42 37 3.5 5.2 0.00 0.00 0.00 47 1033.2
20200221220227 42 31 2.6 5.2 0.00 0.00 0.00 46 1033.2
20200221220116 42 31 1.7 4.3 0.00 0.00 0.00 47 1033.2
20200221215954 42 35 2.6 4.3 0.00 0.00 0.00 47 1033.2
20200221215905 42 23 1.7 3.5 0.00 0.00 0.00 48 1033.3
20200221215811 42 41 2.6 7.8 0.00 0.00 0.00 46 1033.3
20200221215731 42 11 2.6 7.8 0.00 0.00 0.00 46 1033.3
20200221215555 42 359 1.7 7.8 0.00 0.00 0.00 46 1033.3
20200221215505 42 17 1.7 7.8 0.00 0.00 0.00 46 1033.3
20200221215352 42 25 0.9 7.8 0.00 0.00 0.00 44 1033.3
20200221215258 42 21 1.7 7.8 0.00 0.00 0.00 44 1033.4
20200221215222 42 16 1.7 7.8 0.00 0.00 0.00 44 1033.3
20200221215111 43 25 4.3 7.8 0.00 0.00 0.00 44 1033.4
20200221214957 43 359 4.3 7.8 0.00 0.00 0.00 45 1033.4
20200221214905 43 49 3.5 8.7 0.00 0.00 0.00 46 1033.4
20200221214813 43 57 3.5 8.7 0.00 0.00 0.00 46 1033.4
20200221214733 43 43 3.5 8.7 0.00 0.00 0.00 48 1033.4
20200221214556 43 62 3.5 8.7 0.00 0.00 0.00 46 1033.5
20200221214504 43 44 2.6 8.7 0.00 0.00 0.00 47 1033.5
20200221214353 42 52 2.6 8.7 0.00 0.00 0.00 47 1033.5
20200221214301 42 39 3.5 8.7 0.00 0.00 0.00 46 1033.5
20200221214225 42 51 3.5 8.7 0.00 0.00 0.00 45 1033.4
20200221214054 43 347 4.3 8.7 0.00 0.00 0.00 44 1033.4
20200221214001 43 359 3.5 6.1 0.00 0.00 0.00 44 1033.4
20200221213908 43 341 2.6 6.1 0.00 0.00 0.00 45 1033.5
20200221213755 43 340 2.6 6.1 0.00 0.00 0.00 45 1033.5
20200221213714 43 359 2.6 6.1 0.00 0.00 0.00 46 1033.5
20200221213557 43 24 1.7 6.1 0.00 0.00 0.00 46 1033.5
20200221213503 43 37 1.7 6.1 0.00 0.00 0.00 46 1033.5
20200221213352 43 4 1.7 6.1 0.00 0.00 0.00 47 1033.5
20200221213259 43 54 2.6 6.1 0.00 0.00 0.00 47 1033.5
20200221213223 43 48 3.5 6.1 0.00 0.00 0.00 47 1033.5
20200221213052 43 49 2.6 13.0 0.00 0.00 0.00 47 1033.5
20200221212958 43 25 2.6 13.0 0.00 0.00 0.00 47 1033.5
20200221212908 43 53 2.6 13.0 0.00 0.00 0.00 47 1033.5
20200221212817 42 43 2.6 13.0 0.00 0.00 0.00 48 1033.5
20200221212736 42 57 3.5 13.0 0.00 0.00 0.00 48 1033.5
20200221212557 42 75 3.5 13.0 0.00 0.00 0.00 48 1033.5
20200221212505 42 44 4.3 13.0 0.00 0.00 0.00 46 1033.5
20200221212413 42 18 4.3 13.0 0.00 0.00 0.00 47 1033.5
20200221212311 42 354 4.3 13.0 0.00 0.00 0.00 46 1033.5
20200221212213 42 359 3.5 13.0 0.00 0.00 0.00 45 1033.5
20200221212102 42 359 3.5 13.0 0.00 0.00 0.00 46 1033.5
20200221212010 42 347 4.3 13.0 0.00 0.00 0.00 46 1033.5
20200221211854 42 14 4.3 13.0 0.00 0.00 0.00 46 1033.5
20200221211803 42 359 5.2 13.0 0.00 0.00 0.00 46 1033.5
20200221211725 42 354 5.2 13.0 0.00 0.00 0.00 46 1033.5
20200221211552 42 32 6.1 13.0 0.00 0.00 0.00 45 1033.4
20200221211458 42 28 5.2 13.0 0.00 0.00 0.00 45 1033.5
20200221211408 42 20 3.5 9.6 0.00 0.00 0.00 46 1033.4
20200221211256 42 359 3.5 9.6 0.00 0.00 0.00 45 1033.4
20200221211220 42 27 4.3 9.6 0.00 0.00 0.00 46 1033.3
20200221211108 43 340 5.2 9.6 0.00 0.00 0.00 46 1033.3
20200221210955 42 25 4.3 9.6 0.00 0.00 0.00 47 1033.4
20200221210903 42 39 1.7 7.8 0.00 0.00 0.00 48 1033.4
20200221210810 42 39 0.9 7.8 0.00 0.00 0.00 46 1033.3
20200221210732 42 354 0.9 7.8 0.00 0.00 0.00 47 1033.3
20200221210557 42 39 1.7 7.8 0.00 0.00 0.00 46 1033.3
20200221210507 42 42 1.7 7.8 0.00 0.00 0.00 46 1033.3
20200221210415 42 45 2.6 7.8 0.00 0.00 0.00 46 1033.5
20200221210311 42 41 3.5 7.8 0.00 0.00 0.00 47 1033.4
20200221210225 42 37 3.5 10.4 0.00 0.00 0.00 47 1033.4
20200221210115 42 39 2.6 10.4 0.00 0.00 0.00 46 1033.4
20200221205957 42 31 2.6 11.3 0.00 0.00 0.00 47 1033.3
20200221205905 42 65 2.6 11.3 0.00 0.00 0.00 46 1033.3
20200221205753 42 68 2.6 11.3 0.00 0.00 0.00 47 1033.4
20200221205714 42 54 2.6 11.3 0.00 0.00 0.00 47 1033.4
20200221205559 42 53 3.5 11.3 0.00 0.00 0.00 46 1033.4
20200221205507 42 19 4.3 11.3 0.00 0.00 0.00 47 1033.3
20200221205415 42 359 4.3 11.3 0.00 0.00 0.00 46 1033.3
20200221205258 42 54 5.2 11.3 0.00 0.00 0.00 47 1033.3
20200221205221 42 59 6.1 11.3 0.00 0.00 0.00 47 1033.3
20200221205108 42 40 5.2 9.6 0.00 0.00 0.00 47 1033.3
20200221204955 42 37 4.3 9.6 0.00 0.00 0.00 47 1033.3
20200221204900 42 23 4.3 9.6 0.00 0.00 0.00 47 1033.3
20200221204809 42 24 4.3 11.3 0.00 0.00 0.00 47 1033.3
20200221204729 42 29 4.3 11.3 0.00 0.00 0.00 47 1033.3
20200221204553 42 19 4.3 11.3 0.00 0.00 0.00 48 1033.4
20200221204501 42 35 4.3 11.3 0.00 0.00 0.00 48 1033.4
20200221204409 42 40 4.3 11.3 0.00 0.00 0.00 47 1033.3
20200221204257 42 354 3.5 11.3 0.00 0.00 0.00 48 1033.3
20200221204221 42 31 3.5 11.3 0.00 0.00 0.00 48 1033.3
20200221204109 42 14 6.1 11.3 0.00 0.00 0.00 46 1033.3
20200221203956 42 33 6.1 11.3 0.00 0.00 0.00 47 1033.3
20200221203903 42 359 5.2 9.6 0.00 0.00 0.00 46 1033.2
20200221203809 42 10 3.5 8.7 0.00 0.00 0.00 47 1033.3
20200221203729 42 347 2.6 8.7 0.00 0.00 0.00 48 1033.3
20200221203557 42 354 1.7 10.4 0.00 0.00 0.00 47 1033.3
20200221203506 42 18 2.6 10.4 0.00 0.00 0.00 46 1033.3
20200221203353 42 21 4.3 10.4 0.00 0.00 0.00 46 1033.4
20200221203300 42 30 5.2 10.4 0.00 0.00 0.00 45 1033.3
20200221203224 42 21 5.2 10.4 0.00 0.00 0.00 47 1033.3
20200221203111 42 30 4.3 10.4 0.00 0.00 0.00 47 1033.3
20200221202959 42 39 5.2 10.4 0.00 0.00 0.00 47 1033.3
20200221202905 42 25 5.2 10.4 0.00 0.00 0.00 47 1033.3
20200221202814 42 54 4.3 10.4 0.00 0.00 0.00 49 1033.4
20200221202733 42 37 2.6 10.4 0.00 0.00 0.00 49 1033.4
20200221202555 42 54 1.7 8.7 0.00 0.00 0.00 49 1033.3
20200221202501 42 14 2.6 9.6 0.00 0.00 0.00 47 1033.3
20200221202409 42 19 3.5 9.6 0.00 0.00 0.00 46 1033.3
20200221202317 42 354 3.5 9.6 0.00 0.00 0.00 47 1033.3
20200221202218 42 19 2.6 12.2 0.00 0.00 0.00 49 1033.4
20200221202106 42 48 2.6 12.2 0.00 0.00 0.00 49 1033.4
20200221201954 42 46 3.5 12.2 0.00 0.00 0.00 47 1033.3
20200221201902 42 60 5.2 12.2 0.00 0.00 0.00 48 1033.5
20200221201809 42 65 6.1 12.2 0.00 0.00 0.00 51 1033.4
20200221201728 42 63 5.2 12.2 0.00 0.00 0.00 51 1033.4
20200221201554 42 37 6.1 12.2 0.00 0.00 0.00 47 1033.4
20200221201503 42 56 5.2 12.2 0.00 0.00 0.00 47 1033.5
20200221201410 42 38 3.5 12.2 0.00 0.00 0.00 49 1033.5
20200221201309 42 14 2.6 10.4 0.00 0.00 0.00 49 1033.4
20200221201213 42 54 3.5 10.4 0.00 0.00 0.00 47 1033.5
20200221201059 42 29 2.6 10.4 0.00 0.00 0.00 47 1033.5
20200221201007 42 36 3.5 10.4 0.00 0.00 0.00 48 1033.5
20200221200855 42 56 4.3 10.4 0.00 0.00 0.00 48 1033.5
20200221200800 42 39 3.5 10.4 0.00 0.00 0.00 49 1033.6
20200221200722 41 68 3.5 10.4 0.00 0.00 0.00 49 1033.6
20200221200610 41 37 4.3 10.4 0.00 0.00 0.00 47 1033.6
20200221200457 41 359 4.3 10.4 0.00 0.00 0.00 47 1033.5
20200221200405 41 36 4.3 8.7 0.00 0.00 0.00 47 1033.5
20200221200306 41 26 4.3 8.7 0.00 0.00 0.00 47 1033.6
20200221200220 41 48 4.3 8.7 0.00 0.00 0.00 48 1033.5
20200221200108 41 30 3.5 9.6 0.00 0.00 0.00 49 1033.6
20200221195954 41 27 2.6 9.6 0.00 0.02 0.00 48 1033.6
20200221195902 41 43 2.6 10.4 0.00 0.02 0.00 48 1033.6
20200221195808 41 55 4.3 10.4 0.00 0.02 0.00 48 1033.6
20200221195728 41 39 4.3 10.4 0.00 0.02 0.00 48 1033.7
20200221195616 41 359 3.5 10.4 0.00 0.02 0.00 49 1033.6
20200221195459 41 16 4.3 10.4 0.00 0.02 0.00 46 1033.6
20200221195407 41 25 5.2 10.4 0.00 0.02 0.00 47 1033.7
20200221195255 41 33 4.3 10.4 0.00 0.02 0.00 49 1033.6
20200221195220 41 35 4.3 10.4 0.00 0.02 0.00 49 1033.7
20200221195106 41 67 4.3 10.4 0.00 0.02 0.00 48 1033.7
20200221194954 41 359 3.5 9.6 0.00 0.02 0.00 50 1033.7
20200221194900 41 47 2.6 11.3 0.00 0.02 0.00 50 1033.7
20200221194807 41 52 2.6 13.9 0.00 0.02 0.00 49 1033.7
20200221194729 41 68 2.6 13.9 0.00 0.02 0.00 49 1033.7
20200221194556 41 52 2.6 13.9 0.00 0.02 0.00 49 1033.7
20200221194503 41 41 4.3 13.9 0.00 0.02 0.00 47 1033.8
20200221194311 41 38 5.2 13.9 0.00 0.02 0.00 49 1033.8
20200221194215 41 24 5.2 13.9 0.00 0.02 0.00 48 1033.7
20200221194101 41 35 7.0 13.9 0.00 0.02 0.00 48 1033.8
20200221194008 41 31 6.1 13.9 0.00 0.02 0.00 50 1033.8
20200221193857 41 39 2.6 11.3 0.00 0.02 0.00 51 1033.8
20200221193804 41 359 1.7 11.3 0.00 0.02 0.00 51 1033.7
20200221193723 41 342 1.7 11.3 0.00 0.02 0.00 51 1033.8
20200221193552 40 25 3.5 11.3 0.00 0.02 0.00 52 1033.8
20200221193500 40 60 3.5 11.3 0.00 0.02 0.00 50 1033.8
20200221193407 40 62 4.3 11.3 0.00 0.02 0.00 49 1033.9
20200221193253 40 12 5.2 12.2 0.00 0.02 0.00 48 1033.9
20200221193218 40 4 6.1 12.2 0.00 0.02 0.00 48 1034.0
20200221193106 40 28 4.3 12.2 0.00 0.02 0.00 48 1034.0
20200221193012 40 4 3.5 12.2 0.00 0.02 0.00 50 1034.0
20200221192858 40 4 3.5 12.2 0.00 0.02 0.00 50 1034.1
20200221192807 40 10 3.5 12.2 0.00 0.02 0.00 49 1034.0
20200221192726 40 23 3.5 12.2 0.00 0.02 0.00 49 1034.1
20200221192552 40 18 7.0 12.2 0.00 0.02 0.00 48 1034.1
20200221192502 40 26 5.2 10.4 0.00 0.02 0.00 48 1034.1
20200221192410 41 359 3.5 10.4 0.00 0.02 0.00 49 1034.1
20200221192256 41 359 3.5 7.8 0.00 0.02 0.00 49 1034.1
20200221192221 40 14 3.5 7.8 0.00 0.02 0.00 51 1034.1
20200221192109 40 9 3.5 7.8 0.00 0.02 0.00 52 1034.2
20200221192014 40 64 2.6 7.8 0.00 0.02 0.00 51 1034.2
20200221191900 40 29 2.6 7.8 0.00 0.02 0.00 51 1034.2
20200221191810 40 4 2.6 7.8 0.00 0.02 0.00 50 1034.3
20200221191729 40 354 2.6 7.8 0.00 0.02 0.00 49 1034.3
20200221191552 41 339 2.6 7.8 0.00 0.02 0.00 49 1034.4
20200221191502 41 8 3.5 7.8 0.00 0.02 0.00 49 1034.4
20200221191410 41 51 4.3 7.8 0.00 0.02 0.00 48 1034.4
20200221191253 41 26 3.5 7.8 0.00 0.02 0.00 50 1034.4
20200221191217 41 68 3.5 7.8 0.00 0.02 0.00 50 1034.4
20200221191106 41 4 4.3 7.8 0.00 0.02 0.00 50 1034.5
20200221191014 41 47 3.5 7.8 0.00 0.02 0.00 50 1034.4
20200221190859 40 41 2.6 7.8 0.00 0.02 0.00 51 1034.4
20200221190807 40 12 2.6 7.8 0.00 0.02 0.00 55 1034.4